GEFSSGP_con_probscp_024.txt.gz
Probability
0 0 0 0 0 0 0 0 0 0 0 0 3 8 10 6 3 2 1 0 0 0 1 10 22 21 12 8 7 6 5 4 3 1 0 0 0 0 0 0 0 0 0 0 0 0 0 0 0
0 0 0 0 0 0 0 0 0 0 0 0 3 6 7 4 2 1 0 0 0 0 0 7 15 15 9 5 3 2 2 3 2 1 0 0 0 0 0 0 0 0 0 0 0 0 0 0 0
0 0 0 0 0 0 0 0 0 0 0 0 2 4 4 2 1 1 0 0 0 0 0 3 7 8 5 2 1 0 0 1 1 0 0 0 0 0 0 0 0 0 0 0 0 0 0 0 0
0 0 0 0 0 0 0 0 0 0 0 1 3 4 3 4 6 4 1 0 0 0 0 1 2 3 2 1 1 0 0 0 0 0 0 0 0 0 0 0 0 0 0 0 0 0 0 0 0
0 0 0 0 0 0 0 0 0 0 1 3 4 3 2 10 18 11 2 0 0 0 0 0 0 0 0 0 0 0 0 0 0 0 0 0 0 0 0 0 0 0 0 0 0 0 0 0 0
0 0 0 0 0 0 0 0 0 0 1 3 3 2 2 16 30 22 6 1 0 0 0 0 0 0 0 0 0 0 0 0 0 0 0 0 0 0 0 0 0 0 0 0 0 0 0 0 0
0 0 0 0 0 0 0 0 0 0 0 1 1 1 2 18 38 37 18 6 1 0 0 0 0 0 0 0 0 0 0 0 0 0 0 0 0 0 0 0 0 0 0 0 0 0 0 0 0
0 0 0 0 0 0 0 0 0 0 0 0 0 0 2 20 48 56 38 18 5 1 0 0 0 0 0 0 0 0 0 0 0 0 0 0 0 0 0 0 0 0 0 0 0 0 0 0 0
0 0 0 0 0 0 0 0 0 0 1 0 0 1 5 26 58 70 56 31 12 3 0 0 0 0 0 0 0 0 0 0 0 0 0 0 0 0 0 0 0 0 0 0 0 0 0 0 0
0 0 0 0 0 0 0 0 0 2 4 5 5 5 10 30 59 73 64 40 18 5 1 0 0 0 0 0 0 0 0 0 0 0 0 0 0 0 0 0 0 0 0 0 0 0 0 0 0
0 0 0 0 0 0 0 0 1 3 7 13 17 17 18 32 53 68 65 45 22 9 4 2 1 1 0 0 0 0 0 0 0 0 0 0 0 0 0 0 0 0 0 0 0 0 0 0 0
0 0 0 0 0 0 0 0 1 4 10 21 31 32 30 36 50 62 64 50 30 20 17 14 8 4 1 0 0 0 0 0 0 0 0 0 0 0 0 0 0 0 0 0 0 0 0 0 0
0 0 0 0 0 0 0 0 0 4 14 28 39 41 38 39 48 61 67 62 50 42 41 35 23 10 3 0 0 0 0 0 0 0 0 0 0 0 0 0 0 0 0 0 0 0 0 0 0
0 0 0 0 0 0 0 0 0 5 19 34 42 42 36 36 47 62 73 77 73 66 63 59 45 25 11 4 1 0 0 0 0 0 0 0 0 0 0 0 0 0 0 0 0 0 0 0 0
0 0 0 0 0 0 0 0 0 6 21 35 41 40 34 33 47 65 79 85 85 81 80 80 69 49 30 16 8 5 3 1 0 0 1 1 1 0 0 0 0 0 0 0 0 0 0 0 0
0 0 0 0 0 0 0 0 0 5 15 27 38 40 36 34 45 65 80 85 86 87 90 93 87 70 50 35 28 24 20 14 7 3 3 3 2 1 0 0 0 0 0 0 0 0 0 0 0
0 0 0 0 0 0 0 0 0 3 7 15 27 37 37 35 42 60 76 82 84 89 93 96 95 85 70 59 57 55 49 37 21 10 6 4 3 1 0 0 0 0 0 0 0 0 0 0 0
0 0 0 0 0 0 0 0 0 1 3 7 15 26 34 37 43 58 74 82 86 90 93 96 97 93 86 82 81 75 64 48 28 13 5 3 1 1 0 0 0 0 0 0 0 0 0 0 0
0 0 0 0 0 0 0 0 0 0 1 2 6 15 25 34 44 62 78 87 90 90 93 97 98 96 95 93 87 75 56 36 19 8 2 1 0 0 0 0 0 0 0 0 0 0 0 0 0
0 0 0 0 0 0 0 0 0 0 0 0 2 7 17 28 44 66 84 91 92 90 92 97 98 96 94 89 78 59 36 17 6 2 0 0 0 0 0 0 0 0 0 0 0 0 0 0 0
0 0 0 0 0 0 0 0 0 0 0 0 0 3 13 27 46 70 87 92 91 89 91 94 95 92 84 74 60 38 17 5 0 0 0 0 0 0 0 0 0 0 0 0 0 0 0 0 0
0 0 0 0 0 0 0 0 0 0 0 0 0 2 13 31 53 75 89 92 90 89 90 89 88 80 66 54 40 22 8 2 0 0 0 0 0 0 0 0 0 0 0 0 0 0 0 0 0
0 0 0 0 0 0 0 0 0 0 0 0 1 3 14 35 60 80 90 92 90 88 87 84 77 62 45 32 22 11 4 1 0 0 0 0 0 0 0 0 0 0 0 0 0 0 0 0 0
0 0 0 0 0 0 0 0 0 0 0 1 5 11 23 45 69 86 93 93 90 84 79 72 59 40 23 14 8 4 1 0 0 0 0 0 0 0 0 0 0 0 0 0 0 0 0 0 0
0 0 0 0 0 0 0 0 0 1 2 7 18 32 46 63 81 91 94 92 86 75 63 49 34 18 8 4 2 1 0 0 0 0 0 0 0 0 0 0 0 0 0 0 0 0 0 0 0
0 0 0 0 0 0 0 0 0 3 11 24 41 57 69 80 88 89 86 81 70 54 37 24 13 5 2 1 0 0 0 0 0 0 0 0 0 0 0 0 0 0 0 0 0 0 0 0 0
0 0 0 0 0 0 0 0 0 5 19 40 58 71 80 84 82 75 65 54 41 26 15 8 3 1 0 0 0 0 0 0 0 0 0 0 0 0 0 0 0 0 0 0 0 0 0 0 0
0 0 0 0 0 0 0 0 0 4 18 39 57 69 75 71 61 49 35 24 14 7 4 2 1 0 0 0 0 0 0 0 0 0 0 0 0 0 0 0 0 0 0 0 0 0 0 0 0
0 0 0 0 0 0 0 1 3 6 15 30 46 56 55 46 34 21 12 6 3 1 1 0 0 0 0 0 0 0 0 0 0 0 0 0 0 0 0 0 0 0 0 0 0 0 0 0 0
0 0 0 0 0 0 0 2 7 12 16 26 39 42 38 27 16 7 3 1 0 0 0 0 0 0 0 0 0 0 0 0 0 0 0 0 0 0 0 0 0 0 0 0 0 0 0 0 0

GEFSSGP_con_probscp_030.txt.gz
Probability
0 0 0 0 0 0 0 0 0 0 0 0 0 0 0 0 0 0 0 0 0 0 0 0 0 0 0 0 0 0 1 2 4 5 6 6 5 4 4 2 1 0 0 0 0 0 0 0 0
0 0 0 0 0 0 0 0 0 0 0 0 0 0 0 0 0 0 0 0 0 0 0 0 0 0 0 0 0 0 0 1 1 2 2 2 2 2 1 1 0 0 0 0 0 0 0 0 0
0 0 0 0 0 0 0 0 0 0 0 0 0 0 0 0 0 0 0 0 0 0 0 1 1 1 0 0 0 0 0 0 0 0 0 0 0 0 0 0 0 0 0 0 0 0 0 0 0
0 0 0 0 0 0 0 0 0 0 0 0 0 0 0 0 0 0 0 0 0 0 0 1 3 4 3 3 2 1 0 0 0 0 0 0 0 0 0 0 0 0 0 0 0 0 0 0 0
0 0 0 0 0 0 0 0 0 0 0 0 1 0 0 0 0 0 0 0 1 1 1 2 5 7 7 6 4 2 1 0 0 0 0 0 0 0 0 0 0 0 0 0 0 0 0 0 0
0 0 0 0 0 0 0 0 0 0 0 0 0 0 0 0 0 0 0 0 2 3 2 1 4 6 7 6 5 2 1 0 0 0 0 0 0 0 0 0 0 0 0 0 0 0 0 0 0
0 0 0 0 0 0 0 0 0 0 0 0 0 0 0 0 0 0 0 0 2 3 1 0 1 3 4 4 3 2 2 1 0 0 0 0 0 0 0 0 0 0 0 0 0 0 0 0 0
0 0 0 0 0 0 0 0 0 0 0 0 0 0 0 0 0 0 0 1 2 2 1 0 0 2 3 3 4 5 4 2 1 0 0 0 0 0 0 0 0 0 0 0 0 0 0 0 0
0 0 0 0 0 0 0 0 0 0 0 0 0 0 0 0 0 0 0 1 2 1 0 0 0 2 4 5 6 7 5 2 1 0 0 0 0 0 0 0 0 0 0 0 0 0 0 0 0
0 0 0 0 0 0 0 0 0 0 0 0 0 1 3 3 1 0 0 0 1 1 0 0 1 3 6 6 6 5 4 2 1 0 0 0 0 0 0 0 0 0 0 0 0 0 0 0 0
0 0 0 0 0 0 0 0 0 0 0 0 2 7 12 10 4 1 0 0 0 0 0 1 2 4 6 7 7 5 3 3 2 1 0 0 0 0 0 0 0 0 0 0 0 0 0 0 0
0 0 0 0 0 0 0 0 0 0 0 1 8 22 30 24 12 4 2 1 1 0 0 2 4 5 7 9 9 7 5 4 2 1 0 0 0 0 0 0 0 0 0 0 0 0 0 0 0
0 0 0 0 0 0 0 0 0 0 0 4 20 43 53 46 30 15 6 3 2 1 1 3 6 8 9 11 11 10 6 4 2 0 0 0 0 0 0 0 0 0 0 0 0 0 0 0 0
0 0 0 0 0 0 0 0 0 0 2 10 33 61 72 65 51 36 21 11 5 2 2 4 8 12 14 15 14 10 6 4 2 1 0 0 0 0 0 0 0 0 0 0 0 0 0 0 0
0 0 0 0 0 0 0 0 0 1 4 13 36 66 80 75 66 56 43 27 13 5 4 7 11 17 22 22 16 9 4 3 3 2 1 0 0 0 0 0 0 0 0 0 0 0 0 0 0
0 0 0 0 0 0 0 0 0 2 5 11 28 54 72 73 67 63 58 47 32 17 11 14 23 31 35 31 20 7 3 2 2 2 1 0 0 0 0 0 0 0 0 0 0 0 0 0 0
0 0 0 0 0 0 0 0 0 1 4 8 18 37 56 62 59 59 61 62 57 44 33 36 48 56 57 50 30 13 6 4 3 2 1 0 0 0 0 0 0 0 0 0 0 0 0 0 0
0 0 0 0 0 0 0 0 0 0 2 4 9 22 40 49 49 51 57 65 70 67 62 66 76 81 81 73 54 33 19 10 5 3 1 0 0 0 0 0 0 0 0 0 0 0 0 0 0
0 0 0 0 0 0 0 0 0 0 0 1 3 11 25 35 36 38 46 59 68 75 78 84 90 93 93 87 70 48 28 13 6 2 1 0 0 0 0 0 0 0 0 0 0 0 0 0 0
0 0 0 0 0 0 0 0 0 0 0 0 1 4 11 17 20 25 35 49 64 77 84 88 90 90 86 77 60 37 18 7 3 1 0 0 0 0 0 0 0 0 0 0 0 0 0 0 0
0 0 0 0 0 0 0 0 0 0 0 0 0 1 2 5 10 17 27 40 60 78 87 88 84 78 68 55 36 16 5 2 0 0 0 0 0 0 0 0 0 0 0 0 0 0 0 0 0
0 0 0 0 0 0 0 0 0 0 0 0 1 1 1 1 5 12 23 38 59 78 84 80 73 62 50 38 23 10 3 1 0 0 0 0 0 0 0 0 0 0 0 0 0 0 0 0 0
0 0 0 0 0 0 0 0 0 0 0 2 4 8 9 9 11 18 30 47 64 75 75 68 59 48 36 25 15 7 2 0 0 0 0 0 0 0 0 0 0 0 0 0 0 0 0 0 0
0 0 0 0 0 0 0 0 0 3 6 9 14 20 23 26 28 33 44 58 66 66 60 50 41 30 20 11 6 2 0 0 0 0 0 0 0 0 0 0 0 0 0 0 0 0 0 0 0
0 0 0 0 0 0 0 0 3 10 18 22 25 28 32 35 37 39 45 50 50 45 37 27 19 13 7 2 1 0 0 0 0 0 0 0 0 0 0 0 0 0 0 0 0 0 0 0 0
0 0 0 0 0 0 0 0 4 16 27 31 31 30 30 29 28 28 27 27 25 21 16 10 6 3 1 0 0 0 0 0 0 0 0 0 0 0 0 0 0 0 0 0 0 0 0 0 0
0 0 0 0 0 0 0 0 4 15 29 36 34 29 23 17 14 13 11 9 7 6 5 3 2 1 0 0 0 0 0 0 0 0 0 0 0 0 0 0 0 0 0 0 0 0 0 0 0
0 0 0 0 0 0 0 0 1 10 25 36 35 26 16 9 6 5 4 3 2 1 1 1 1 0 0 0 0 0 0 0 0 0 0 0 0 0 0 0 0 0 0 0 0 0 0 0 0
0 0 0 0 0 0 0 0 4 13 26 34 32 22 11 5 3 2 1 1 1 0 0 0 0 0 0 0 0 0 0 0 0 0 0 0 0 0 0 0 0 0 0 0 0 0 0 0 0
0 0 0 0 0 0 0 1 8 23 34 34 29 18 7 2 1 1 0 0 0 0 0 0 0 0 0 0 0 0 0 0 0 0 0 0 0 0 0 0 0 0 0 0 0 0 0 0 0

GEFSSGP_con_probscp_036.txt.gz
Probability
0 0 0 0 0 0 0 0 0 0 0 0 0 0 0 0 0 0 0 0 0 0 0 0 0 0 0 0 0 0 0 0 1 2 4 4 3 2 1 0 0 0 0 0 0 0 0 0 0
0 0 0 0 0 0 0 0 0 0 0 0 0 0 0 0 0 0 0 0 0 0 0 0 0 0 0 0 0 0 0 0 0 1 1 1 1 1 0 0 0 0 0 0 0 0 0 0 0
0 0 0 0 0 0 0 0 0 0 0 0 0 0 0 0 0 0 0 0 0 0 0 0 0 0 0 0 0 0 0 0 0 0 0 0 0 0 0 0 0 0 0 0 0 0 0 0 0
0 0 0 0 0 0 0 0 0 0 0 0 0 0 0 0 0 0 0 0 0 0 0 0 0 0 0 0 0 0 0 0 0 0 0 0 0 0 0 0 0 0 0 0 0 0 0 0 0
0 0 0 0 0 0 0 0 0 0 0 0 0 0 0 0 0 0 0 0 0 0 0 0 0 0 0 0 0 0 0 0 0 0 0 0 0 0 0 0 0 0 0 0 0 0 0 0 0
0 0 0 0 0 0 0 0 0 0 0 0 0 0 0 0 1 1 0 0 0 0 1 1 1 0 0 0 0 0 0 0 0 0 0 0 0 0 0 0 0 0 0 0 0 0 0 0 0
0 0 0 0 0 0 0 0 0 0 0 0 0 0 1 2 4 3 1 0 0 0 1 2 1 0 0 0 0 0 0 0 0 0 0 0 0 0 0 0 0 0 0 0 0 0 0 0 0
0 0 0 0 0 0 0 0 0 0 0 0 0 0 3 7 10 8 3 1 0 0 1 1 1 0 0 0 0 0 0 0 0 0 0 0 0 0 0 0 0 0 0 0 0 0 0 0 0
0 0 0 0 0 0 0 0 0 0 0 0 0 0 6 14 17 12 5 1 0 0 0 0 0 0 0 0 0 0 0 0 0 0 0 0 0 0 0 1 2 1 0 0 0 0 0 0 0
0 0 0 0 0 0 0 0 0 0 0 0 0 1 8 18 20 13 5 1 0 0 0 0 0 0 0 0 0 0 0 0 0 0 0 0 0 0 1 2 3 1 0 0 0 0 0 0 0
0 0 0 0 0 0 0 0 0 0 0 0 1 3 9 16 15 8 2 1 0 0 0 0 0 0 0 0 0 0 0 0 0 0 0 0 0 0 1 2 1 0 0 0 0 0 0 0 0
0 0 0 0 0 0 0 0 0 0 0 0 1 3 9 11 7 2 1 1 0 0 0 0 1 1 1 0 0 0 0 0 0 1 1 0 0 1 1 1 0 0 0 0 0 0 0 0 0
0 0 0 0 0 0 0 0 0 0 0 0 0 2 5 7 3 0 0 1 1 1 1 1 3 5 5 3 2 0 0 0 0 1 2 1 1 2 1 1 1 1 1 1 0 0 0 0 0
0 0 0 0 0 0 0 0 0 0 0 0 0 0 2 2 1 2 4 7 8 7 7 8 10 12 12 10 7 4 3 3 3 5 6 5 4 6 6 4 3 4 5 4 2 0 0 0 0
0 0 0 0 0 0 0 0 0 0 0 0 0 0 0 1 1 4 11 18 21 22 23 22 21 22 25 24 20 14 12 13 15 16 17 14 12 16 20 21 21 20 16 10 6 3 1 0 0
0 0 0 0 0 0 0 0 0 0 0 0 0 0 0 0 1 4 15 30 41 47 48 43 38 41 47 47 41 34 31 33 35 35 33 28 25 31 42 48 48 42 30 19 11 5 3 1 0
0 0 0 0 0 0 0 0 0 0 0 0 0 0 0 0 0 3 15 37 58 71 73 67 63 65 68 67 63 58 56 54 53 49 44 40 38 44 56 61 56 45 33 22 13 6 2 0 0
0 0 0 0 0 0 0 0 0 0 0 0 0 0 0 0 1 5 16 38 65 83 87 85 83 83 81 79 78 75 68 60 52 46 42 40 41 44 49 49 41 31 24 16 10 4 1 0 0
0 0 0 0 0 0 0 0 0 0 0 1 1 2 2 2 4 10 20 39 64 84 90 91 92 93 91 88 85 78 64 49 37 30 27 27 27 28 28 26 21 15 11 7 4 2 0 0 0
0 0 0 0 0 0 0 0 0 0 2 4 7 11 13 15 17 21 28 40 58 76 86 91 94 95 94 90 82 68 51 36 24 15 11 10 10 10 9 8 7 4 3 1 0 0 0 0 0
0 0 0 0 0 0 0 0 0 0 4 13 21 29 35 39 40 40 40 43 52 66 79 87 91 93 91 85 73 58 44 30 18 8 3 2 2 2 1 1 1 0 0 0 0 0 0 0 0
0 0 0 0 0 0 0 0 0 0 7 24 42 52 58 62 62 61 59 58 60 66 76 84 89 90 86 79 69 58 46 32 17 6 1 0 0 0 0 0 0 0 0 0 0 0 0 0 0
0 0 0 0 0 0 0 0 0 4 16 39 61 72 75 75 74 73 74 75 75 76 80 85 86 82 77 71 64 56 46 30 14 4 0 0 0 0 0 0 0 0 0 0 0 0 0 0 0
0 0 0 0 0 0 0 0 4 15 34 55 70 77 76 74 73 72 72 74 77 77 77 76 73 67 60 54 49 43 33 19 7 1 0 0 0 0 0 0 0 0 0 0 0 0 0 0 0
0 0 0 0 0 0 0 1 11 31 49 59 63 62 58 53 52 53 53 54 57 58 56 52 48 43 37 33 29 23 16 7 2 0 0 0 0 0 0 0 0 0 0 0 0 0 0 0 0
0 0 0 0 0 0 0 3 15 32 42 46 46 40 32 26 24 26 27 26 27 28 27 24 21 18 16 14 10 7 4 2 0 0 0 0 0 0 0 0 0 0 0 0 0 0 0 0 0
0 0 0 0 0 0 0 3 11 20 27 34 34 25 16 11 7 7 8 7 7 7 8 7 5 5 4 3 2 1 1 0 0 0 0 0 0 0 0 0 0 0 0 0 0 0 0 0 0
0 0 0 0 0 0 0 1 7 16 26 33 29 17 8 5 2 1 1 1 1 1 1 1 1 1 1 1 1 1 0 0 0 0 0 0 0 0 0 0 0 0 0 0 0 0 0 0 0
0 0 0 0 0 0 0 1 7 21 34 36 23 9 4 2 0 0 0 0 0 0 0 0 0 0 0 1 1 0 0 0 0 0 0 0 0 0 0 0 0 0 0 0 0 0 0 0 0
0 0 0 0 0 0 1 2 7 23 40 34 16 5 2 1 0 0 0 0 0 0 0 0 0 0 0 0 0 0 0 0 0 0 0 0 0 0 0 0 0 0 0 0 0 0 0 0 0

GEFSSGP_con_probscp_042.txt.gz
Probability
0 0 0 0 0 0 0 0 0 0 0 0 0 0 0 0 0 0 1 6 12 7 1 0 0 0 0 0 0 0 0 0 0 0 0 1 2 2 1 2 2 1 0 0 0 0 0 0 0
0 0 0 0 0 0 0 0 0 0 0 0 0 0 0 0 0 0 2 6 8 5 1 0 0 0 0 0 0 0 0 0 0 0 0 1 1 1 0 1 1 0 0 0 0 0 0 0 0
0 0 0 0 0 0 0 0 0 0 0 0 0 0 0 0 0 1 3 4 4 2 0 0 0 0 0 0 0 0 0 0 0 0 0 0 0 0 0 0 0 0 0 0 0 0 0 0 0
0 0 0 0 0 0 0 0 0 0 0 0 0 0 0 0 1 2 3 2 1 0 0 0 0 0 0 0 0 0 0 0 0 0 0 0 0 0 0 0 0 0 0 0 0 0 0 0 0
0 0 0 0 0 0 0 0 0 0 0 0 0 0 0 0 1 1 2 1 1 1 0 0 0 0 0 0 0 0 0 0 0 0 0 0 0 0 0 0 0 0 0 0 0 0 0 0 0
0 0 0 0 0 0 0 0 0 0 0 0 0 1 0 0 0 0 0 1 2 3 1 0 0 0 0 0 0 0 0 0 0 0 0 0 0 0 0 0 0 0 0 0 0 0 0 0 0
0 0 0 0 0 0 0 0 0 0 0 0 0 1 1 0 0 0 0 0 2 3 1 0 0 0 0 0 0 0 0 0 0 0 0 0 0 0 0 0 0 0 0 0 0 0 0 0 0
0 0 0 0 0 0 0 0 0 0 0 0 1 4 5 2 0 0 0 0 1 2 1 0 0 0 0 0 0 0 0 0 0 0 0 0 0 0 0 0 0 0 0 0 0 0 0 0 0
0 0 0 0 0 0 0 0 0 0 0 0 2 7 9 4 0 0 0 0 1 2 2 0 0 0 0 0 0 0 0 0 0 0 0 0 0 0 0 2 3 3 1 0 0 0 0 0 0
0 0 0 0 0 0 0 0 0 0 0 0 3 8 8 3 0 0 0 0 1 3 3 1 0 0 0 1 1 0 0 0 0 1 1 0 0 1 3 7 10 8 4 1 0 0 0 0 0
0 0 0 0 0 0 0 0 0 0 0 1 5 10 8 2 0 0 0 1 3 4 4 5 4 3 3 7 7 3 3 4 3 4 4 2 1 5 11 15 15 10 4 1 1 2 1 1 0
0 0 0 0 0 0 0 0 0 0 0 1 5 12 11 4 0 0 0 2 5 5 4 10 16 14 14 23 23 11 9 13 13 14 16 12 10 16 24 26 21 13 7 5 4 5 4 2 2
0 0 0 0 0 0 0 0 0 0 0 1 4 9 10 4 1 0 1 6 13 14 11 19 34 38 37 46 46 31 28 32 35 38 39 34 32 36 43 46 42 33 26 22 17 14 11 7 7
0 0 0 0 0 0 0 0 0 0 0 1 1 4 5 3 2 2 7 17 31 35 31 36 52 62 65 68 68 60 54 58 63 67 67 61 59 62 68 72 70 62 57 52 44 35 28 21 16
0 0 0 0 0 0 0 0 0 0 0 0 0 1 2 3 3 5 16 34 52 61 61 61 68 77 84 84 84 79 75 77 83 87 88 83 81 83 87 88 84 79 77 74 67 58 48 36 29
0 0 0 0 0 0 0 0 0 0 0 0 0 1 2 4 5 10 25 49 69 80 86 83 81 87 93 93 92 88 86 89 93 96 96 92 91 91 92 91 86 83 81 77 70 64 56 45 37
0 0 0 0 0 0 0 0 0 0 0 0 0 1 3 5 7 15 35 61 80 91 97 95 93 95 97 97 97 95 94 95 97 95 92 88 86 85 86 85 81 77 74 68 58 50 45 36 29
0 0 0 0 0 0 0 0 0 0 0 0 0 1 4 7 10 21 44 69 85 95 99 100 99 99 99 99 99 99 98 97 94 87 81 76 73 73 75 75 70 65 59 52 41 31 23 17 12
0 0 0 0 0 0 0 0 0 0 0 1 3 6 10 15 22 34 53 72 86 94 98 100 100 100 100 100 100 100 99 94 85 74 67 63 60 56 58 60 57 49 41 31 23 15 9 5 3
0 0 0 0 0 0 0 0 0 0 1 4 10 16 25 33 43 54 65 77 88 96 99 100 100 100 100 100 100 99 95 86 73 61 53 47 42 37 36 39 38 30 22 14 9 6 4 2 1
0 0 0 0 0 0 0 0 0 0 3 10 20 31 44 56 65 73 80 87 93 97 99 100 100 100 100 100 99 96 87 75 61 48 38 29 23 19 18 18 17 13 8 5 2 2 1 0 0
0 0 0 0 0 0 0 0 0 0 6 19 35 50 64 73 79 84 89 93 95 96 97 97 98 97 96 95 94 89 77 63 48 34 23 15 9 7 7 6 5 3 2 1 0 0 0 0 0
0 0 0 0 0 0 0 0 0 3 13 33 55 70 78 82 83 83 86 88 90 90 90 90 89 87 84 83 81 75 63 48 34 22 12 6 3 2 2 1 1 1 0 0 0 0 0 0 0
0 0 0 0 0 0 0 0 5 18 37 59 76 82 83 80 73 67 67 71 74 77 77 76 74 69 65 65 64 57 44 30 19 11 6 3 1 0 0 0 0 0 0 0 0 0 0 0 0
0 0 0 0 0 0 0 3 19 47 71 83 86 82 75 63 50 42 42 45 49 52 54 52 49 45 42 42 41 36 25 15 9 6 3 2 1 0 0 0 0 0 0 0 0 0 0 0 0
0 0 0 0 0 0 2 15 44 74 90 90 83 69 52 36 25 21 20 22 24 26 27 25 23 20 18 17 16 14 10 6 4 3 2 1 1 0 0 0 0 0 0 0 0 0 0 0 0
0 0 0 0 0 0 4 26 61 85 90 85 71 49 27 15 10 8 8 7 8 9 9 8 7 6 5 3 2 2 2 1 1 1 1 0 0 0 0 0 0 0 0 0 0 0 0 0 0
0 0 0 0 0 0 4 22 53 78 84 74 51 26 11 6 3 2 1 1 1 1 2 2 2 1 1 0 0 0 0 0 0 0 0 0 0 0 0 0 0 0 0 0 0 0 0 0 0
0 0 0 0 0 0 2 16 44 71 75 57 29 10 3 2 1 0 0 0 0 0 0 1 1 0 0 0 0 0 0 0 0 0 0 0 0 0 0 0 0 0 0 0 0 0 0 0 0
0 0 0 0 0 0 2 18 50 74 71 45 17 3 1 1 0 0 0 0 0 0 0 0 0 0 0 0 0 0 0 0 0 0 0 0 0 0 0 0 0 0 0 0 0 0 0 0 0

GEFSSGP_con_probscp_048.txt.gz
Probability
0 0 0 0 0 0 0 0 0 0 0 0 0 2 2 1 0 1 0 2 9 12 9 7 12 14 9 7 5 2 1 2 2 1 0 0 0 0 1 1 1 0 0 0 0 0 0 0 0
0 0 0 0 0 0 0 0 0 0 0 0 1 2 3 1 1 1 1 3 8 10 7 4 5 6 5 4 4 2 1 1 1 0 0 0 0 0 0 0 0 0 0 0 0 0 0 0 0
0 0 0 0 0 0 0 0 0 0 0 1 1 2 2 1 1 1 1 2 5 6 3 2 2 1 1 2 2 1 0 0 0 0 0 0 0 0 0 0 0 0 0 0 0 0 0 0 0
0 0 0 0 0 0 0 0 0 0 1 2 3 2 1 2 2 2 1 1 2 3 3 3 3 2 1 1 1 1 0 0 0 0 0 0 0 0 0 0 0 0 0 0 0 0 0 0 0
0 0 0 0 0 0 0 0 0 0 1 4 5 3 2 5 6 3 0 0 2 3 3 3 3 3 1 0 0 0 0 0 0 0 0 0 0 0 0 0 0 0 0 0 0 0 0 0 0
0 0 0 0 0 0 0 0 0 0 1 4 6 3 4 8 7 3 0 0 1 3 3 3 3 3 2 1 0 0 0 0 0 0 0 0 0 0 0 0 0 0 0 0 0 0 0 0 0
0 0 0 0 0 0 0 0 0 0 1 5 7 4 4 7 5 2 0 0 1 2 3 3 3 3 3 2 0 0 0 0 0 0 0 0 0 0 0 0 0 0 0 0 0 0 0 0 0
0 0 0 0 0 0 0 0 0 0 1 5 6 3 3 4 4 3 3 2 0 1 1 3 3 3 3 1 0 0 0 0 0 0 0 0 0 0 0 0 0 0 0 0 0 0 0 0 1
0 0 0 0 0 0 0 0 0 0 1 3 4 4 5 6 8 11 9 4 1 0 1 2 2 2 2 1 0 0 0 0 0 0 0 0 0 0 0 0 0 0 0 0 0 1 1 1 1
0 0 0 0 0 0 0 0 0 0 1 3 6 9 10 10 13 17 14 8 3 0 0 1 1 1 1 0 0 0 0 0 0 0 0 0 0 0 0 0 0 0 0 0 0 1 2 1 1
0 0 0 0 0 0 0 0 0 0 1 6 12 16 15 12 13 16 17 12 5 1 0 0 0 0 0 0 0 0 0 0 0 0 0 0 0 0 0 0 0 0 0 0 0 1 2 1 1
0 0 0 0 0 0 0 0 0 0 2 8 16 20 16 11 10 13 17 15 8 2 0 0 0 0 0 0 0 0 0 0 0 0 0 0 0 0 0 0 0 0 0 0 0 0 1 1 0
0 0 0 0 0 0 0 0 0 1 3 9 18 20 15 10 8 10 15 18 14 6 1 0 0 0 0 0 0 0 0 0 0 0 0 0 0 0 0 0 0 0 0 0 0 0 0 0 0
0 0 0 0 0 0 0 0 0 1 4 9 15 16 13 11 9 10 15 21 20 13 5 2 0 0 0 0 0 0 0 0 0 0 0 0 0 0 0 0 0 0 0 0 0 0 0 0 0
0 0 0 0 0 0 0 0 0 1 3 6 10 12 13 12 11 11 14 20 23 20 13 7 3 2 2 2 1 1 1 1 1 1 0 0 0 1 0 0 0 0 0 0 0 0 0 0 0
0 0 0 0 0 0 0 0 0 1 2 4 6 11 14 15 16 15 14 18 23 24 21 16 15 14 14 13 11 10 11 11 8 5 3 3 3 3 2 1 1 0 0 0 0 0 0 0 0
0 0 0 0 0 0 0 0 0 0 1 2 5 10 16 22 24 21 18 19 23 25 27 30 34 36 36 35 34 33 33 29 23 17 13 12 12 11 8 5 3 2 2 1 0 0 0 0 0
0 0 0 0 0 0 0 0 0 0 0 2 6 12 19 26 30 27 22 24 27 30 36 45 53 58 62 62 62 61 56 45 35 29 25 24 22 19 15 11 8 7 5 3 0 0 0 0 0
0 0 0 0 0 0 0 0 1 2 3 6 12 22 28 31 34 33 31 32 35 35 41 54 66 74 79 81 80 75 62 45 33 28 26 25 23 20 17 13 10 8 6 2 0 0 0 0 0
0 0 0 0 0 0 0 2 5 9 14 21 28 36 40 41 41 41 40 40 39 38 44 57 69 78 84 86 83 71 52 34 22 18 16 16 15 14 12 10 7 5 3 1 0 0 0 0 0
0 0 0 0 0 0 0 3 9 21 34 42 47 50 51 51 50 49 48 47 44 44 50 58 67 75 81 83 79 63 42 25 16 11 8 7 7 7 6 4 2 1 0 0 0 0 0 0 0
0 0 0 0 0 0 0 1 10 28 47 57 59 57 56 56 57 56 54 52 50 52 57 61 66 72 76 77 74 60 40 23 13 7 4 2 2 2 2 1 0 0 0 0 0 0 0 0 0
0 0 0 0 0 0 0 0 7 24 45 57 59 56 51 52 55 55 53 51 49 50 55 61 65 66 66 65 62 51 33 16 8 4 1 0 0 0 0 0 0 0 0 0 0 0 0 0 0
0 0 0 0 0 0 0 1 4 16 32 46 49 45 39 40 43 44 44 42 39 39 44 51 55 53 50 48 44 33 20 10 5 2 0 0 0 0 0 0 0 0 0 0 0 0 0 0 0
0 0 0 0 0 0 0 3 7 12 21 31 34 29 25 26 30 31 30 29 28 28 29 32 34 34 32 29 24 16 10 6 3 1 0 0 0 0 0 0 0 0 0 0 0 0 0 0 0
0 0 0 0 0 0 2 8 12 12 14 17 18 15 14 15 17 18 17 16 17 16 15 14 15 15 15 12 8 5 3 2 1 0 0 0 0 0 0 0 0 0 0 0 0 0 0 0 0
0 0 0 0 0 0 4 12 15 12 10 9 8 7 6 7 8 8 7 6 6 5 4 4 3 3 3 2 1 0 0 0 0 0 0 0 0 0 0 0 0 0 0 0 0 0 0 0 0
0 0 0 0 0 0 3 9 15 15 11 6 4 4 3 3 3 3 2 1 1 0 0 0 0 0 0 0 0 0 0 0 0 0 0 0 0 0 0 0 0 0 0 0 0 0 0 0 0
0 0 0 0 0 0 0 4 12 17 11 5 3 2 2 2 1 1 0 0 0 0 0 0 0 0 0 0 0 0 0 0 0 0 0 0 0 0 0 0 0 0 0 0 0 0 0 0 0
0 0 0 0 0 0 0 3 10 13 9 4 2 1 1 1 0 0 0 0 0 0 0 0 0 0 0 0 0 0 0 0 0 0 0 0 0 0 0 0 0 0 0 0 0 0 0 0 0

GEFSSGP_con_probscp_054.txt.gz
Probability
0 0 0 0 0 0 0 0 0 0 0 0 0 0 0 0 0 0 0 2 9 16 13 8 5 6 6 7 9 11 12 11 7 4 2 1 0 0 0 0 0 0 0 0 0 0 0 0 0
0 0 0 0 0 0 0 0 0 0 0 0 0 0 0 0 0 0 2 7 15 18 13 7 4 5 5 5 6 7 7 6 4 2 1 0 0 0 0 0 0 0 0 0 0 0 0 0 0
0 0 0 0 0 0 0 0 0 0 0 0 0 0 0 0 0 0 5 15 21 18 11 5 5 5 4 3 3 3 3 2 1 0 0 0 0 0 0 0 0 0 0 0 0 0 0 0 0
0 0 0 0 0 0 0 0 0 0 0 0 0 0 0 0 0 1 8 17 19 12 5 4 5 5 4 3 3 3 2 1 0 0 0 0 0 0 0 0 0 0 0 0 0 0 0 0 0
0 0 0 0 0 0 0 0 0 0 0 0 0 0 0 0 0 3 8 12 11 5 2 3 4 4 3 3 3 3 2 1 0 0 0 0 0 0 0 0 0 0 0 0 0 0 0 0 0
0 0 0 0 0 0 0 0 0 0 0 0 0 0 0 0 1 3 5 6 4 2 1 3 3 3 3 3 3 3 1 0 0 0 0 0 0 0 0 0 0 0 0 0 0 0 0 0 0
0 0 0 0 0 0 0 0 0 0 0 0 0 0 0 0 1 2 3 3 1 1 2 3 3 3 2 2 2 2 1 0 0 0 0 0 0 0 0 0 0 0 0 0 0 0 0 0 0
0 0 0 0 0 0 0 0 0 0 0 0 0 0 0 1 3 4 4 3 1 1 2 3 2 1 1 1 1 1 0 0 0 0 0 0 0 0 0 0 0 0 0 0 0 0 0 0 0
0 0 0 0 0 0 0 0 0 0 0 0 0 0 3 6 7 6 5 4 3 1 1 1 1 1 0 0 0 0 0 0 0 0 0 0 0 0 0 0 0 0 0 0 0 0 0 1 1
0 0 0 0 0 0 0 0 0 0 0 0 0 3 9 13 11 7 5 4 3 1 0 0 0 0 0 0 0 0 0 0 0 0 0 0 0 0 0 0 0 0 0 0 0 0 0 0 0
0 0 0 0 0 0 0 0 0 0 0 0 2 12 22 22 13 7 3 2 2 0 0 0 0 0 0 0 1 1 0 0 0 0 0 0 0 0 0 0 0 0 0 0 0 0 0 0 0
0 0 0 0 0 0 0 0 0 0 0 1 7 24 37 31 16 6 2 1 1 0 0 0 0 0 0 1 3 2 1 0 0 0 0 0 0 0 0 0 0 0 0 0 0 0 0 0 0
0 0 0 0 0 0 0 0 0 0 0 4 15 35 48 38 19 7 2 1 1 1 0 0 0 0 0 1 3 3 2 1 0 0 0 0 0 0 0 0 0 0 0 0 0 0 0 0 0
0 0 0 0 0 0 0 0 0 0 1 7 21 39 47 37 19 9 3 1 2 2 1 0 0 0 0 1 3 3 3 2 1 0 0 0 0 0 0 0 0 0 0 0 0 0 0 0 0
0 0 0 0 0 0 0 0 0 1 2 8 21 34 38 29 18 11 6 2 2 2 1 0 1 1 1 2 3 3 2 2 1 0 0 1 1 1 0 0 0 0 0 0 0 0 0 0 0
0 0 0 0 0 0 0 0 1 2 3 6 13 24 29 24 16 10 8 6 4 3 2 2 4 4 3 3 4 3 2 1 0 0 0 1 2 2 1 0 0 0 0 0 0 0 0 0 0
0 0 0 0 0 0 0 0 1 2 3 4 7 14 21 22 16 11 11 10 9 9 8 6 7 7 5 6 6 5 3 1 0 0 0 1 2 2 1 0 0 0 0 0 0 0 0 0 0
0 0 0 0 0 0 0 1 2 3 4 4 6 10 17 21 18 15 13 13 16 19 17 14 14 14 13 14 15 14 10 5 2 1 0 0 1 2 1 0 0 1 2 1 0 0 0 0 0
0 0 0 0 0 0 1 3 6 8 10 9 9 12 18 23 22 16 13 14 20 24 25 25 26 29 31 32 32 28 19 11 6 3 1 1 1 1 1 1 2 2 3 3 1 0 0 0 0
0 0 0 0 0 0 1 4 10 17 21 19 17 17 20 24 24 18 13 14 20 25 28 32 37 45 51 53 47 36 23 13 7 5 3 3 2 1 2 3 3 3 3 3 1 0 0 0 0
0 0 0 0 0 0 0 3 11 21 27 27 23 20 21 25 25 21 16 16 19 23 28 34 40 49 57 61 54 38 25 16 10 6 6 5 3 1 2 3 2 2 1 1 0 0 0 0 0
0 0 0 0 0 0 0 2 7 14 21 23 21 19 20 23 22 20 18 18 19 20 24 29 35 40 47 53 51 41 30 21 12 7 6 4 2 1 1 1 1 0 0 0 0 0 0 0 0
0 0 0 0 0 0 0 1 3 7 11 13 13 13 14 14 14 14 15 15 15 16 18 22 25 27 31 36 38 35 26 16 9 5 3 1 0 0 0 0 0 0 0 0 0 0 0 0 0
0 0 0 0 0 0 0 1 4 6 7 8 8 7 6 4 4 6 8 8 9 11 13 15 17 18 20 21 21 19 13 6 3 1 1 0 0 0 0 0 0 0 0 0 0 0 0 0 0
0 0 0 0 0 0 0 4 8 7 6 6 6 4 3 1 1 2 3 4 4 7 9 12 14 13 11 10 9 7 4 2 1 0 0 0 0 0 0 0 0 0 0 0 0 0 0 0 0
0 0 0 0 0 0 2 6 8 6 4 4 4 3 3 2 2 2 2 2 3 4 5 7 8 6 3 3 2 1 0 0 0 0 0 0 0 0 0 0 0 0 0 0 0 0 0 0 0
0 0 0 0 0 1 4 7 7 6 4 3 3 3 3 2 1 1 1 1 1 1 2 2 2 1 0 0 0 0 0 0 0 0 0 0 0 0 0 0 0 0 0 0 0 0 0 0 0
0 0 0 0 0 0 2 5 6 6 4 3 3 2 1 1 0 0 0 0 0 0 0 0 0 0 0 0 0 0 0 0 0 0 0 0 0 0 0 0 0 0 0 0 0 0 0 0 0
0 0 0 0 0 0 1 3 4 4 4 3 1 1 0 0 0 0 0 0 0 0 0 0 0 0 0 0 0 0 0 0 0 0 0 0 0 0 0 0 0 0 0 0 0 0 0 0 0
0 0 0 0 0 0 1 2 2 2 3 2 1 0 0 0 0 0 0 0 0 0 0 0 0 0 0 0 0 0 0 0 0 0 0 0 0 0 0 0 0 0 0 0 0 0 0 0 0

GEFSSGP_con_probscp_060.txt.gz
Probability
0 0 0 0 0 0 0 0 0 0 0 0 0 0 0 0 0 0 0 4 15 25 21 13 10 8 6 6 11 22 29 30 25 18 10 4 2 0 0 0 0 0 0 0 0 0 0 0 0
0 0 0 0 0 0 0 0 0 0 0 0 0 0 0 0 0 0 1 8 19 24 19 12 10 8 5 6 15 28 39 41 35 25 14 6 2 1 0 0 0 0 0 0 0 0 0 0 0
0 0 0 0 0 0 0 0 0 0 0 0 0 0 0 0 0 0 2 11 20 21 16 12 10 8 5 7 19 36 47 49 45 34 19 8 3 1 0 0 0 0 0 0 0 0 0 0 0
0 0 0 0 0 0 0 0 0 0 0 0 0 0 0 0 0 0 3 10 17 17 13 10 8 7 5 9 22 37 46 48 46 38 24 11 4 1 0 0 0 0 0 0 0 0 0 0 0
0 0 0 0 0 0 0 0 0 0 0 0 0 0 0 0 0 2 5 9 12 11 8 6 5 4 4 9 22 36 43 44 44 37 25 12 5 1 0 0 0 0 0 0 0 0 0 0 0
0 0 0 0 0 0 0 0 0 0 0 0 0 0 0 1 3 7 10 9 8 6 3 2 2 1 2 7 19 32 39 39 37 31 20 10 4 1 0 0 0 0 0 0 0 0 0 0 0
0 0 0 0 0 0 0 0 0 0 0 0 0 0 0 3 10 15 14 10 6 2 0 0 0 0 1 4 12 21 27 28 27 22 14 8 4 1 0 0 0 0 0 0 0 0 0 0 0
0 0 0 0 0 0 0 0 0 0 0 0 0 0 2 9 20 24 22 16 9 3 0 0 0 0 0 2 6 9 12 13 14 12 9 6 3 1 0 0 0 0 0 0 0 0 0 0 0
0 0 0 0 0 0 0 0 0 0 0 0 0 0 4 16 30 37 36 29 18 8 1 0 0 0 0 0 1 2 3 4 4 5 4 3 1 0 0 0 0 0 0 0 0 0 0 0 0
0 0 0 0 0 0 0 0 0 0 0 0 0 0 5 18 33 42 45 39 27 13 3 0 0 0 0 0 0 0 1 1 1 1 1 1 1 0 0 0 0 0 0 0 0 0 0 0 0
0 0 0 0 0 0 0 0 0 0 0 0 0 1 6 15 27 35 38 36 28 16 4 0 0 0 0 0 0 0 0 1 1 1 2 2 1 0 0 0 0 0 0 0 0 0 0 0 0
0 0 0 0 0 0 0 0 0 0 0 0 0 2 6 11 17 22 24 25 23 15 6 1 1 1 0 0 1 1 1 1 2 3 3 3 1 0 0 0 0 0 0 0 0 0 0 0 0
0 0 0 0 0 0 0 0 0 0 0 0 0 2 5 7 10 13 14 16 19 15 8 3 2 2 1 1 2 1 1 2 3 3 3 2 1 1 1 0 0 0 0 1 0 0 0 0 0
0 0 0 0 0 0 0 0 0 0 0 0 0 1 2 3 7 11 14 15 17 15 10 6 3 3 3 3 4 3 3 4 5 5 5 4 3 4 4 2 1 1 2 3 2 1 1 1 1
0 0 0 0 0 0 0 0 0 1 2 1 1 1 1 2 5 12 18 18 17 16 13 8 4 3 3 4 6 7 6 6 7 8 10 10 9 12 13 10 8 9 9 10 10 8 7 7 6
0 0 0 0 0 0 0 0 2 3 4 4 6 7 7 7 9 14 19 19 17 17 16 11 6 4 5 6 8 11 11 10 12 15 18 19 19 23 26 26 25 25 24 22 20 19 18 17 15
0 0 0 0 0 0 1 2 5 7 7 10 17 22 24 22 22 23 22 19 18 18 17 14 11 10 11 12 16 21 20 18 21 26 32 34 33 35 39 42 44 42 38 35 32 30 28 27 25
0 0 0 0 0 1 2 5 8 9 11 19 30 38 40 40 38 35 30 24 20 19 19 19 20 25 28 29 32 36 34 31 31 37 45 49 48 48 50 54 55 52 48 47 44 38 33 29 27
0 0 0 0 0 1 3 6 10 13 17 27 39 47 51 51 49 44 39 35 30 27 28 31 37 44 51 54 55 57 56 49 44 46 51 55 54 53 55 56 56 53 51 50 46 36 27 22 21
0 0 0 0 0 1 2 5 10 14 20 32 44 53 58 58 56 51 48 46 42 39 42 46 52 59 65 70 74 76 73 63 54 50 51 50 47 45 45 46 45 43 41 39 33 24 16 12 10
0 0 0 0 0 0 1 2 6 12 21 34 47 56 62 62 60 56 54 53 51 51 53 54 57 61 66 73 80 81 74 63 54 48 43 38 34 31 30 30 28 26 24 20 16 11 8 6 4
0 0 0 0 0 0 0 0 2 8 21 36 48 55 59 59 57 56 55 54 55 58 60 58 58 60 64 72 77 76 68 57 47 39 32 27 23 19 18 17 15 12 11 8 5 4 4 4 3
0 0 0 0 0 0 0 0 1 6 18 32 42 46 46 45 45 46 47 47 50 55 59 58 56 56 61 68 71 69 61 50 38 29 24 20 15 11 9 7 6 5 4 3 1 1 2 2 2
0 0 0 0 0 0 0 2 6 9 13 21 27 29 27 25 25 28 29 31 34 39 44 45 42 43 47 52 54 54 49 37 24 18 14 11 8 5 3 2 2 1 1 1 0 1 1 1 1
0 0 0 0 0 0 0 5 11 11 8 10 12 12 10 9 9 11 13 14 16 19 23 24 23 23 26 28 29 31 29 20 12 9 6 4 4 2 1 0 0 0 0 0 0 0 0 0 0
0 0 0 0 0 0 1 8 12 8 3 3 3 2 2 2 2 2 3 4 4 6 8 9 8 8 9 9 10 11 10 7 5 4 3 2 2 1 0 0 0 0 0 0 0 0 0 0 0
0 0 0 0 0 0 2 8 8 4 1 0 0 0 0 0 0 0 1 1 1 1 1 2 2 2 1 1 2 2 1 1 2 2 2 1 1 0 0 0 0 0 0 0 0 0 0 0 0
0 0 0 0 0 0 2 4 6 4 1 0 0 0 0 0 0 0 0 0 0 0 0 0 0 0 0 0 1 1 0 0 1 1 1 0 0 0 0 0 0 0 0 0 0 0 0 0 0
0 0 0 0 0 0 1 4 6 5 2 0 0 0 0 0 0 0 0 0 0 0 0 0 0 0 0 0 0 0 0 0 0 0 0 0 0 0 0 0 0 0 0 0 0 0 0 0 0
0 0 0 0 0 0 2 6 7 6 4 1 0 0 0 0 0 0 0 0 0 0 0 0 0 0 0 0 0 0 0 0 0 0 0 0 0 0 0 0 0 0 0 0 0 0 0 0 0

GEFSSGP_con_probscp_066.txt.gz
Probability
0 0 0 0 0 0 0 0 0 0 0 0 0 0 0 1 0 1 8 35 73 86 82 80 72 50 26 10 3 0 0 0 0 0 0 0 0 0 0 0 0 0 0 0 0 0 0 0 0
0 0 0 0 0 0 0 0 0 0 0 0 0 0 1 1 1 3 15 46 76 83 79 82 78 59 36 16 5 1 0 0 0 0 0 0 0 0 0 0 0 0 0 0 0 0 0 0 0
0 0 0 0 0 0 0 0 0 0 0 0 0 1 2 2 2 8 24 52 74 76 77 83 83 70 48 25 9 3 1 0 0 0 0 0 0 0 0 0 0 0 0 0 0 0 0 0 0
0 0 0 0 0 0 0 0 0 0 0 0 1 4 5 4 6 13 25 47 67 73 74 79 81 73 54 30 12 4 2 1 1 1 0 0 0 0 0 0 0 0 0 0 0 0 0 0 0
0 0 0 0 0 0 0 0 0 0 0 0 2 9 13 11 12 15 21 39 61 71 70 70 74 70 54 32 14 5 3 3 2 1 1 1 1 0 0 0 0 0 0 0 0 0 0 0 0
0 0 0 0 0 0 0 0 0 0 0 0 3 13 20 19 15 13 17 33 54 66 63 60 61 60 49 32 16 9 7 6 4 2 3 4 2 1 0 0 0 0 0 0 0 0 0 0 0
0 0 0 0 0 0 0 0 0 0 0 0 2 13 25 22 13 9 14 28 46 58 54 45 41 40 35 27 19 13 11 9 4 2 4 5 3 1 0 0 0 0 0 0 0 0 0 0 0
0 0 0 0 0 0 0 0 0 0 0 0 2 15 30 26 13 9 14 25 41 50 44 30 22 20 17 16 15 11 9 6 4 3 4 3 2 1 0 0 0 0 0 0 0 0 0 0 0
0 0 0 0 0 0 0 0 0 0 0 0 4 17 29 27 16 13 18 28 43 49 37 20 11 7 6 7 7 5 3 2 2 3 3 2 1 0 0 1 2 1 0 0 0 0 0 0 0
0 0 0 0 0 0 0 0 0 0 0 1 6 18 25 22 16 16 23 34 47 49 32 14 5 3 3 4 4 2 1 0 1 1 1 1 0 0 2 4 6 3 0 0 0 0 0 0 1
0 0 0 0 0 0 0 0 0 0 0 1 7 17 23 20 14 14 21 35 48 43 25 10 5 3 3 5 5 2 0 0 0 1 1 0 0 1 3 7 8 4 1 0 0 0 0 1 2
0 0 0 0 0 0 0 0 0 0 0 1 6 15 21 18 11 10 17 33 44 37 22 14 12 12 15 17 10 4 2 1 2 3 3 1 1 1 3 8 9 6 3 2 2 1 1 2 2
0 0 0 0 0 0 0 0 0 0 0 1 4 12 17 14 12 14 21 34 44 39 28 26 30 35 42 40 24 10 8 6 8 10 7 3 3 3 6 13 16 12 9 10 9 7 6 4 2
0 0 0 0 0 0 0 0 0 0 0 0 3 8 13 14 18 27 36 44 53 52 45 49 59 64 66 56 37 23 19 16 18 21 16 10 10 14 21 29 31 23 19 24 25 19 15 10 6
0 0 0 0 0 0 0 0 0 0 0 0 3 7 12 19 28 40 50 59 69 70 67 73 79 80 77 62 42 31 27 26 32 36 33 25 24 35 47 49 46 39 35 41 42 35 29 24 19
0 0 0 0 0 0 0 1 1 1 2 3 6 10 16 26 36 48 60 72 82 84 84 84 82 83 80 66 47 35 34 40 50 56 56 47 44 56 66 64 58 55 54 54 52 49 46 41 37
0 0 0 0 0 0 1 3 4 5 6 8 12 16 23 34 44 56 70 81 87 89 89 86 83 82 79 70 57 46 49 60 69 74 74 68 63 67 74 72 68 67 66 62 57 57 57 54 50
0 0 0 1 1 1 3 6 9 11 12 14 18 26 35 44 56 69 81 88 90 89 88 87 84 81 78 74 68 63 68 77 81 80 80 77 73 73 76 75 71 70 70 66 61 58 57 53 52
0 0 1 2 2 3 5 9 13 17 20 24 31 40 49 58 67 77 85 87 88 87 86 85 84 81 78 76 76 77 80 83 82 79 76 73 71 71 70 68 66 65 65 61 57 53 48 43 42
0 0 1 2 3 4 6 10 16 24 31 40 48 55 62 67 70 74 77 79 81 83 82 80 81 82 80 79 80 82 82 79 74 69 64 60 57 56 54 53 53 52 49 45 42 40 36 30 26
0 0 1 2 2 2 3 8 18 31 42 52 59 63 66 66 61 60 63 68 72 75 74 73 76 80 82 81 79 79 76 70 62 54 46 41 38 37 35 34 34 33 32 29 26 24 22 18 13
0 0 0 1 1 0 1 5 18 33 45 53 57 60 61 58 50 45 47 53 59 63 63 63 66 71 75 76 73 70 68 60 49 38 30 26 23 21 21 19 19 19 18 17 13 11 10 8 6
0 0 0 0 0 0 0 4 18 35 44 48 50 50 49 47 41 34 31 33 38 43 46 46 47 50 55 58 58 57 54 45 35 25 19 15 12 10 9 8 8 8 8 7 5 4 3 2 1
0 0 0 0 0 0 0 8 27 44 47 44 41 38 35 31 27 21 15 13 15 20 23 24 23 24 28 32 35 37 33 26 18 12 9 6 4 3 2 2 2 2 1 1 2 1 1 0 0
0 0 0 0 0 0 1 17 44 56 46 34 27 24 19 14 10 7 4 2 2 5 7 7 6 6 8 11 13 14 14 10 6 3 2 1 1 0 0 0 0 0 0 0 0 0 0 0 0
0 0 0 0 0 0 7 31 57 57 38 21 11 9 6 4 1 0 0 0 0 1 1 1 1 1 1 2 2 2 2 2 1 0 0 0 0 0 0 0 0 0 0 0 0 0 0 0 0
0 0 0 0 0 0 11 37 53 45 28 13 4 1 1 0 0 0 0 0 0 0 0 0 0 0 0 0 0 0 0 0 0 0 0 0 0 0 0 0 0 0 0 0 0 0 0 0 0
0 0 0 0 0 0 7 23 33 28 17 8 2 0 0 0 0 0 0 0 0 0 0 0 0 0 0 0 0 0 0 0 0 0 0 0 0 0 0 0 0 0 0 0 0 0 0 0 0
0 0 0 0 0 0 2 8 15 16 8 3 1 0 0 0 0 0 0 0 0 0 0 0 0 0 0 0 0 0 0 0 0 0 0 0 0 0 0 0 0 0 0 0 0 0 0 0 0
0 0 0 0 0 0 1 4 10 10 4 0 0 0 0 0 0 0 0 0 0 0 0 0 0 0 0 0 0 0 0 0 0 0 0 0 0 0 0 0 0 0 0 0 0 0 0 0 0

GEFSSGP_con_probscp_072.txt.gz
Probability
0 0 0 0 0 0 0 0 0 0 0 0 0 0 0 0 0 0 0 2 8 11 8 8 13 14 9 6 6 7 7 7 6 5 4 2 1 0 0 0 0 0 0 0 0 0 0 0 0
0 0 0 0 0 0 0 0 0 0 0 0 0 0 0 0 0 0 1 6 15 17 12 10 14 15 13 9 9 9 8 7 6 4 3 2 1 0 0 0 0 0 0 0 0 0 0 0 0
0 0 0 0 0 0 0 0 0 0 0 0 0 0 0 0 1 3 8 16 23 23 18 16 19 20 18 15 11 10 9 6 4 2 1 1 0 0 0 0 0 0 0 0 0 0 0 0 0
0 0 0 0 0 0 0 0 0 0 0 0 1 3 2 3 6 11 19 26 29 27 24 24 27 28 25 19 15 12 9 5 2 1 0 0 0 0 0 0 0 0 0 0 0 0 0 0 0
0 0 0 0 0 0 0 0 0 0 0 0 3 5 5 8 16 23 26 30 34 35 31 29 31 32 28 22 18 15 11 5 3 2 1 0 0 0 0 0 0 0 0 0 0 0 0 0 0
0 0 0 0 0 0 0 0 0 0 0 0 3 6 8 13 23 29 28 30 40 45 38 30 27 26 23 20 19 17 11 6 3 2 1 0 0 0 0 0 0 0 0 0 0 0 0 0 0
0 0 0 0 0 0 0 0 0 0 0 1 4 7 9 15 23 30 30 33 41 46 41 31 22 17 14 13 16 15 10 5 3 1 0 0 0 0 0 0 0 0 0 0 0 0 0 0 0
0 0 0 0 0 0 0 0 0 0 0 1 4 7 11 19 27 32 34 36 39 39 39 34 23 14 10 11 12 11 8 5 3 2 1 0 0 0 0 0 0 0 0 0 0 0 0 0 0
0 0 0 0 0 0 0 0 0 0 0 3 6 9 15 25 34 39 41 41 38 33 32 33 27 18 13 11 10 8 6 4 3 2 1 0 0 0 0 0 0 0 0 0 0 0 0 0 0
0 0 0 0 0 0 0 0 0 0 1 4 9 14 21 30 38 46 49 45 37 29 25 28 28 23 17 13 11 9 6 4 3 3 2 1 0 0 0 0 0 0 0 0 0 0 0 0 0
0 0 0 0 0 0 0 0 0 0 1 4 10 17 22 29 37 48 53 47 37 28 22 23 25 23 19 16 15 11 7 4 3 3 2 1 0 0 0 0 0 0 0 0 0 0 0 0 0
0 0 0 0 0 0 0 0 0 0 0 4 10 15 19 24 32 44 50 46 37 28 21 19 19 18 16 16 14 9 6 4 3 2 1 0 0 0 0 0 0 0 0 0 0 0 0 0 0
0 0 0 0 0 0 0 0 0 0 1 4 9 14 17 20 27 38 46 44 37 29 22 16 14 13 13 12 8 5 3 3 2 1 0 0 0 0 0 0 0 0 0 0 0 0 0 0 0
0 0 0 0 0 0 0 0 1 1 2 5 10 14 16 18 25 37 47 47 41 32 23 16 12 11 11 7 4 3 2 1 1 1 1 0 0 0 0 0 0 0 0 0 0 0 0 0 0
0 0 0 0 0 0 0 1 3 3 3 7 14 19 20 22 29 40 51 54 48 36 25 18 13 13 12 7 3 1 1 1 1 2 3 2 0 0 0 0 0 0 0 0 0 0 0 0 0
0 0 0 0 0 0 0 2 5 5 5 10 19 26 29 32 38 45 52 58 55 45 34 26 23 24 19 11 6 5 4 3 1 1 3 3 2 0 0 0 0 0 0 0 0 0 0 0 0
0 0 0 0 0 0 0 3 7 9 12 18 25 32 37 41 43 47 53 57 58 54 47 40 40 42 36 26 19 16 13 9 4 2 2 4 3 1 0 0 0 0 0 0 1 0 0 0 0
0 0 0 0 0 0 2 7 12 16 21 28 31 34 40 45 46 46 50 54 57 56 53 50 54 56 53 47 38 29 22 16 8 4 3 3 3 2 2 2 1 1 1 1 1 0 0 0 0
0 0 0 0 0 1 5 11 18 23 28 34 35 36 41 47 49 48 49 51 52 51 50 51 55 58 59 58 49 37 27 19 12 7 4 2 2 3 3 3 3 2 2 2 1 0 0 0 1
0 0 0 0 0 1 6 15 23 30 35 39 41 41 44 49 50 49 47 46 45 44 43 44 46 50 54 55 49 40 29 19 12 8 5 1 1 2 3 2 2 2 2 2 1 0 0 0 1
0 0 0 0 0 1 4 12 22 32 39 43 45 46 46 46 46 43 39 37 35 33 32 33 34 38 44 45 42 35 26 17 11 6 3 0 0 1 1 0 0 1 1 1 0 0 0 0 1
0 0 0 0 0 0 1 6 14 23 32 36 38 40 38 34 32 30 26 23 20 18 19 20 21 24 28 31 30 25 18 12 8 3 1 0 0 0 0 0 0 0 0 0 0 0 0 0 0
0 0 0 0 0 0 0 1 5 14 20 22 23 24 21 17 16 15 12 10 8 7 8 10 10 11 13 16 16 13 9 6 3 1 0 0 0 0 0 0 0 0 0 0 0 0 0 0 0
0 0 0 0 0 0 0 0 3 8 12 12 11 10 8 5 4 4 4 3 2 2 3 4 4 3 4 5 6 5 3 1 0 0 0 0 0 0 0 0 0 0 0 0 0 0 0 0 0
0 0 0 0 0 0 0 0 2 7 9 7 4 3 2 1 0 1 1 0 0 0 0 1 1 0 1 1 1 1 1 0 0 0 0 0 0 0 0 0 0 0 0 0 0 0 0 0 0
0 0 0 0 0 0 0 0 2 7 7 3 0 0 0 0 0 0 0 0 0 0 0 0 0 0 0 0 0 0 0 0 0 0 0 0 0 0 0 0 0 0 0 0 0 0 0 0 0
0 0 0 0 0 0 0 0 2 5 4 2 0 0 0 0 0 0 0 0 0 0 0 0 0 0 0 0 0 0 0 0 0 0 0 0 0 0 0 0 0 0 0 0 0 0 0 0 0
0 0 0 0 0 0 0 0 1 2 2 1 0 0 0 0 0 0 0 0 0 0 0 0 0 0 0 0 0 0 0 0 0 0 0 0 0 0 0 0 0 0 0 0 0 0 0 0 0
0 0 0 0 0 0 0 0 1 2 2 1 0 0 0 0 0 0 0 0 0 0 0 0 0 0 0 0 0 0 0 0 0 0 0 0 0 0 0 0 0 0 0 0 0 0 0 0 0
0 0 0 0 0 0 0 0 1 2 1 0 0 0 0 0 0 0 0 0 0 0 0 0 0 0 0 0 0 0 0 0 0 0 0 0 0 0 0 0 0 0 0 0 0 0 0 0 0

GEFSSGP_con_probscp_078.txt.gz
Probability
0 0 0 0 0 0 0 0 0 0 0 0 0 0 0 0 0 0 0 0 1 4 7 10 8 4 6 14 21 21 19 18 17 15 12 7 2 2 2 2 2 1 0 0 0 0 0 0 0
0 0 0 0 0 0 0 0 0 0 0 0 0 0 0 0 0 0 0 1 4 8 11 12 10 6 7 14 20 21 19 18 17 16 12 7 3 2 2 1 1 0 0 0 0 0 0 0 0
0 0 0 0 0 0 0 0 0 0 0 0 0 0 0 0 0 0 0 4 10 16 17 15 12 11 12 16 21 22 21 19 18 17 13 8 4 1 1 0 0 0 0 0 0 0 0 0 0
0 0 0 0 0 0 0 0 0 0 0 0 0 0 0 0 1 2 4 11 19 24 24 21 19 18 18 20 22 24 24 21 19 17 14 10 4 1 0 0 0 0 0 0 0 0 0 0 0
0 0 0 0 0 0 0 0 0 0 0 0 1 1 1 2 4 6 11 20 27 31 32 30 27 23 21 23 24 25 25 23 19 17 15 11 6 2 0 0 0 0 0 0 0 0 0 0 0
0 0 0 0 0 0 0 0 0 0 0 0 1 2 4 8 10 13 19 25 31 38 40 39 32 23 21 25 26 27 27 24 20 18 15 11 6 2 0 0 0 0 0 0 0 0 0 0 0
0 0 0 0 0 0 0 0 0 0 0 1 2 4 8 14 21 25 29 31 34 41 45 44 36 26 24 28 29 30 30 26 21 17 13 9 4 1 0 0 0 0 0 0 0 0 0 0 0
0 0 0 0 0 0 0 0 0 0 0 1 3 5 10 20 31 37 38 39 40 42 45 45 39 34 32 30 28 29 30 26 20 15 11 6 3 1 0 0 0 0 0 0 0 0 0 0 0
0 0 0 0 0 0 0 0 0 0 0 3 7 10 17 28 37 41 42 43 44 42 41 41 38 38 36 32 27 27 28 24 17 13 10 7 4 2 1 0 0 0 0 0 0 0 0 0 0
0 0 0 0 0 0 0 0 0 0 0 4 12 19 25 34 39 39 40 42 42 42 40 36 33 35 37 34 32 32 31 25 17 12 11 9 6 4 2 1 0 0 0 0 0 0 0 0 0
0 0 0 0 0 0 0 0 0 0 0 3 12 22 29 35 38 37 37 38 38 40 39 33 27 29 33 36 38 40 35 25 18 13 11 9 7 5 4 2 1 1 0 0 0 0 0 0 0
0 0 0 0 0 0 0 0 0 0 1 3 12 25 33 34 34 33 34 36 37 39 39 32 23 23 29 35 39 39 32 22 16 13 11 8 6 5 4 3 2 2 1 0 0 0 0 0 0
0 0 0 0 0 0 0 0 0 1 2 6 16 30 37 34 31 31 35 37 36 37 39 33 24 21 25 30 34 32 25 18 13 11 10 7 4 3 2 2 2 2 2 1 0 0 0 0 0
0 0 0 0 0 0 0 0 2 4 4 7 16 27 32 30 29 32 38 39 35 35 38 36 29 23 24 28 30 28 23 18 12 9 7 4 2 2 1 0 1 1 2 2 1 0 0 0 0
0 0 0 0 0 0 0 1 3 5 6 8 13 20 24 25 28 34 40 40 35 35 42 43 38 30 26 27 27 24 20 14 9 6 4 2 1 0 0 0 0 0 2 3 2 1 1 0 0
0 0 0 0 0 0 0 0 2 5 6 9 14 18 23 26 30 35 42 42 38 39 47 50 46 38 30 27 24 19 13 8 6 5 3 1 0 0 0 0 0 0 1 2 2 2 1 0 0
0 0 0 0 0 0 0 0 1 4 7 11 14 18 23 28 32 38 44 46 43 42 45 48 45 39 33 25 19 13 8 4 3 4 3 1 0 0 0 0 0 0 1 1 1 1 1 0 0
0 0 0 0 0 0 0 0 1 4 7 12 15 17 20 25 29 35 42 46 44 39 39 40 38 35 31 24 17 12 6 2 1 1 1 1 1 1 0 0 0 0 0 0 0 0 0 0 0
0 0 0 0 0 0 0 1 2 4 8 14 19 20 19 21 23 28 35 39 38 36 34 34 32 32 30 25 18 12 6 2 0 0 1 2 3 2 1 0 0 0 0 0 0 0 0 0 0
0 0 0 0 0 0 0 1 3 4 7 13 20 22 21 21 21 24 29 32 34 34 32 30 30 30 27 22 15 9 4 2 1 0 1 2 3 3 1 0 0 0 0 0 0 0 0 0 0
0 0 0 0 0 0 0 1 2 2 4 9 14 18 20 22 23 23 25 29 31 30 28 26 25 24 20 14 9 5 2 1 0 0 0 1 1 1 1 0 0 0 0 0 0 0 0 0 0
0 0 0 0 0 0 0 0 0 0 1 3 6 10 14 16 17 19 21 23 23 21 19 18 17 15 12 8 6 3 0 0 0 0 0 0 0 0 0 0 0 0 0 0 0 0 0 0 0
0 0 0 0 0 0 0 0 0 0 1 1 2 4 6 6 7 10 12 13 12 11 11 11 11 10 8 6 4 2 0 0 0 0 0 0 0 0 0 0 0 0 0 0 0 0 0 0 0
0 0 0 0 0 0 0 0 1 1 0 0 0 0 1 1 2 3 4 4 4 4 5 6 7 7 5 3 2 1 0 0 0 0 0 0 0 0 0 0 0 0 0 0 0 0 0 0 0
0 0 0 0 0 0 0 0 1 2 1 1 0 0 0 0 0 0 1 1 1 1 1 3 3 3 2 1 0 0 0 0 0 0 0 0 0 0 0 0 0 0 0 0 0 0 0 0 0
0 0 0 0 0 0 0 0 1 2 2 1 0 0 0 0 0 0 0 0 0 0 0 1 1 1 1 0 0 0 0 0 0 0 0 0 0 0 0 0 0 0 0 0 0 0 0 0 0
0 0 0 0 0 0 0 0 1 1 1 1 0 0 0 0 0 0 0 0 0 0 0 0 0 0 0 0 0 0 0 0 0 0 0 0 0 0 0 0 0 0 0 0 0 0 0 0 0
0 0 0 0 0 0 0 0 0 0 0 0 0 0 0 0 0 0 0 0 0 0 0 0 0 0 0 0 0 0 0 0 0 0 0 0 0 0 0 0 0 0 0 0 0 0 0 0 0
0 0 0 0 0 0 0 0 0 0 0 0 0 0 0 0 0 0 0 0 0 0 0 0 0 0 0 0 0 0 0 0 0 0 0 0 0 0 0 0 0 0 0 0 0 0 0 0 0
0 0 0 0 0 0 0 0 0 0 0 0 0 0 0 0 0 0 0 0 0 0 0 0 0 0 0 0 0 0 0 0 0 0 0 0 0 0 0 0 0 0 0 0 0 0 0 0 0

GEFSSGP_con_probscp_084.txt.gz
Probability
0 0 0 0 0 0 0 0 0 0 0 0 0 0 0 0 0 0 2 4 11 27 42 54 63 59 48 44 41 39 38 34 27 23 20 15 7 1 0 0 0 0 0 0 0 0 0 0 0
0 0 0 0 0 0 0 0 0 0 0 0 0 0 0 0 0 1 2 4 12 27 43 56 68 68 59 54 53 52 52 48 41 33 26 18 9 2 0 0 0 0 0 0 0 0 0 0 0
0 0 0 0 0 0 0 0 0 0 0 0 0 0 0 1 1 3 4 6 14 28 45 65 77 78 74 70 67 67 68 65 57 46 36 25 14 5 1 0 0 0 0 0 0 0 0 0 0
0 0 0 0 0 0 0 0 0 0 0 0 0 0 0 1 3 7 10 12 18 30 48 69 82 84 83 80 77 75 75 74 67 55 43 31 19 8 2 0 0 0 0 0 0 0 0 0 0
0 0 0 0 0 0 0 0 0 0 0 0 0 0 1 2 5 10 16 18 24 34 51 70 84 87 86 84 82 79 78 77 71 61 50 37 23 11 3 1 0 0 0 0 0 0 0 0 0
0 0 0 0 0 0 0 0 0 0 0 0 0 0 2 5 9 15 22 23 26 39 58 74 82 84 85 83 80 77 77 77 72 66 56 42 26 13 4 1 0 0 0 0 0 0 0 0 0
0 0 0 0 0 0 0 0 0 0 0 0 0 0 3 10 16 23 28 28 30 45 63 71 71 72 74 74 72 71 73 74 70 64 56 43 26 13 5 1 0 0 0 0 0 0 0 0 0
0 0 0 0 0 0 0 0 0 0 0 0 0 1 7 16 26 34 38 40 43 53 64 66 60 57 56 57 59 63 67 69 64 57 47 34 19 9 4 2 2 1 0 0 0 0 0 0 0
0 0 0 0 0 0 0 0 0 0 0 0 0 3 10 21 32 42 51 56 60 61 63 62 58 52 47 47 51 52 55 56 49 39 32 21 9 4 4 7 8 3 0 0 0 0 0 0 0
0 0 0 0 0 0 0 0 0 0 0 0 0 3 10 20 31 44 57 65 68 66 60 57 58 57 52 53 57 51 44 40 33 25 19 13 9 6 6 13 13 5 0 0 0 0 0 0 0
0 0 0 0 0 0 0 0 0 0 0 0 0 2 8 17 27 37 50 60 63 62 58 54 60 64 63 68 72 64 53 44 37 32 25 22 21 15 13 16 14 7 3 1 1 0 0 0 0
0 0 0 0 0 0 0 0 0 0 0 0 0 2 8 15 21 27 38 48 54 56 57 60 67 72 74 78 81 76 70 62 56 55 48 39 32 25 21 19 16 11 7 5 3 1 0 0 0
0 0 0 0 0 0 0 0 0 1 1 1 2 4 9 13 16 20 30 42 49 55 60 67 72 76 78 81 82 78 77 72 67 66 61 50 40 33 29 26 23 16 12 11 7 3 2 1 1
0 0 0 0 0 0 0 0 0 1 3 4 5 6 9 12 15 21 30 41 49 56 63 67 68 69 73 76 77 75 75 73 66 64 63 55 46 43 39 34 30 23 17 15 11 7 5 3 2
0 0 0 0 0 0 0 0 0 2 3 5 6 8 11 15 20 26 35 44 48 52 57 59 57 60 64 66 67 67 69 69 65 63 63 57 51 53 51 45 40 32 24 20 17 13 8 5 3
0 0 0 0 0 0 0 0 0 1 3 4 5 9 15 22 27 33 41 48 48 47 49 49 50 55 59 60 59 60 62 63 65 65 62 56 53 55 57 56 52 47 37 31 27 20 14 9 6
0 0 0 0 0 0 0 0 0 1 2 4 6 12 20 28 36 40 45 50 50 46 47 47 49 53 56 56 57 56 56 58 62 64 60 55 53 54 58 62 62 57 52 47 41 34 25 17 14
0 0 0 0 0 0 0 0 1 2 3 5 9 16 23 30 37 41 45 51 52 50 50 51 52 54 55 56 56 55 53 52 55 57 56 53 52 54 57 61 61 58 58 57 51 43 32 23 20
0 0 0 0 0 0 0 0 1 2 5 9 13 19 26 30 35 39 44 49 52 53 52 53 54 55 56 56 55 52 49 45 43 44 45 45 47 50 53 54 53 52 53 53 48 40 29 21 19
0 0 0 0 0 0 0 0 1 3 7 11 14 20 26 30 33 39 43 46 50 53 53 54 55 56 57 56 53 47 40 33 27 25 27 29 33 37 42 44 43 41 42 41 38 32 23 15 13
0 0 0 0 0 0 0 0 0 2 5 8 10 15 20 25 29 36 42 44 48 52 54 55 55 55 55 52 46 37 28 21 15 12 10 12 16 22 27 29 30 29 28 28 26 22 17 12 10
0 0 0 0 0 0 0 0 0 2 2 3 6 9 14 19 23 29 35 39 43 48 50 50 50 50 48 44 37 29 20 14 9 6 3 2 5 10 13 14 14 14 13 12 12 10 9 8 7
0 0 0 0 0 0 0 0 0 1 1 1 3 5 9 13 16 20 25 28 32 35 38 39 39 38 37 35 31 24 16 10 6 3 1 0 1 2 3 3 3 3 3 2 2 3 4 4 3
0 0 0 0 0 0 0 0 1 2 1 1 1 2 3 6 10 12 14 17 19 22 25 27 27 26 26 26 22 16 11 6 3 2 1 0 0 0 0 0 0 0 0 0 0 1 1 1 0
0 0 0 0 0 0 0 1 5 7 6 4 3 1 0 2 4 5 6 7 9 11 13 16 16 16 15 14 11 7 5 4 2 1 0 0 0 0 0 0 0 0 0 0 0 0 0 0 0
0 0 0 0 0 0 0 4 9 11 8 6 3 1 0 0 1 1 1 2 3 3 5 6 7 7 7 6 4 3 2 2 1 0 0 0 0 0 0 0 0 0 0 0 0 0 0 0 0
0 0 0 0 0 0 1 5 9 8 6 4 2 0 0 0 0 0 0 0 0 0 0 1 1 1 2 2 1 1 1 1 0 0 0 0 0 0 0 0 0 0 0 0 0 0 0 0 0
0 0 0 0 0 0 0 2 3 2 1 2 1 0 0 0 0 0 0 0 0 0 0 0 0 0 0 0 0 0 0 0 0 0 0 0 0 0 0 0 0 0 0 0 0 0 0 0 0
0 0 0 0 0 0 0 0 0 0 1 1 1 0 0 0 0 0 0 0 0 0 0 0 0 0 0 0 0 0 0 0 0 0 0 0 0 0 0 0 0 0 0 0 0 0 0 0 0
0 0 0 0 0 0 0 0 0 1 1 1 1 1 0 0 0 0 0 0 0 0 0 0 0 0 0 0 0 0 0 0 0 0 0 0 0 0 0 0 0 0 0 0 0 0 0 0 0

GEFSSGP_con_probscp_090.txt.gz
Probability
0 0 0 0 0 0 0 0 0 0 0 0 0 0 0 0 3 6 7 20 53 74 71 66 64 50 31 20 14 10 7 6 3 1 1 0 0 1 1 1 1 1 0 0 0 0 0 0 0
0 0 0 0 0 0 0 0 0 0 0 0 0 0 0 1 4 7 12 28 58 74 70 69 71 59 40 28 21 15 11 8 7 5 4 3 3 4 3 2 2 1 0 0 0 0 0 0 0
0 0 0 0 0 0 0 0 0 0 0 0 0 0 1 3 6 12 19 35 61 73 70 75 82 74 58 44 35 26 18 13 12 11 9 8 8 8 7 4 2 1 0 0 0 0 0 0 0
0 0 0 0 0 0 0 0 0 0 0 0 0 1 5 9 13 19 21 33 56 68 69 76 86 85 74 63 53 42 32 24 20 18 16 14 14 12 8 4 1 0 0 0 0 0 0 0 0
0 0 0 0 0 0 0 0 0 0 0 0 0 3 11 19 24 25 19 28 51 68 72 77 86 89 84 76 69 61 52 43 37 32 27 24 23 18 11 6 2 0 0 0 0 0 0 0 0
0 0 0 0 0 0 0 0 0 0 0 0 0 5 19 32 36 30 21 26 49 71 79 82 86 89 85 80 78 75 71 66 60 50 42 36 31 24 16 9 5 2 1 0 0 0 0 0 0
0 0 0 0 0 0 0 0 0 0 0 0 0 8 29 50 53 43 30 31 52 75 83 82 81 81 79 77 80 82 82 81 75 62 51 43 34 24 17 12 8 5 2 1 0 0 0 0 0
0 0 0 0 0 0 0 0 0 0 0 0 1 12 39 62 64 54 44 44 62 79 82 77 73 71 70 72 78 82 82 82 78 64 51 40 27 17 13 11 10 7 3 1 1 1 0 0 0
0 0 0 0 0 0 0 0 0 0 0 0 2 16 41 60 60 55 54 61 74 84 81 70 65 62 60 64 73 77 75 73 67 55 44 32 17 8 5 8 12 8 2 1 1 1 0 0 0
0 0 0 0 0 0 0 0 0 0 0 0 2 15 36 50 53 53 60 71 81 87 80 64 56 53 53 60 72 72 65 61 54 44 36 24 12 5 5 14 20 13 4 1 1 1 0 0 0
0 0 0 0 0 0 0 0 0 0 0 0 2 11 27 40 45 51 61 72 80 83 77 62 52 50 51 64 75 68 59 55 48 41 33 22 14 12 17 27 27 16 6 3 2 1 0 0 0
0 0 0 0 0 0 0 0 0 0 0 1 3 9 20 30 37 45 57 70 77 76 71 64 60 57 61 72 76 66 60 56 50 46 39 27 20 21 29 32 25 14 6 4 4 2 1 1 1
0 0 0 0 0 0 0 0 0 0 1 2 5 10 17 25 31 39 53 69 76 73 69 68 70 71 73 78 75 65 61 58 55 55 47 34 27 28 33 32 24 14 9 10 11 9 8 7 6
0 0 0 0 0 0 0 0 0 0 1 3 6 12 19 26 32 41 53 67 76 76 74 74 78 79 80 80 74 65 63 62 62 63 54 39 32 34 39 41 33 22 20 25 26 23 22 19 15
0 0 0 0 0 0 0 0 0 0 1 3 8 16 23 29 37 47 56 67 76 79 77 75 79 82 81 78 73 65 62 61 63 62 55 41 36 40 48 51 44 33 35 45 44 39 37 33 26
0 0 0 0 0 0 0 0 0 0 3 7 14 22 27 32 41 50 59 69 77 80 77 74 76 80 79 73 67 59 55 55 55 54 50 42 39 46 52 52 49 44 47 53 50 45 44 38 32
0 0 0 0 0 0 0 0 0 1 6 13 21 27 31 36 44 53 64 75 80 80 77 74 74 75 73 68 62 54 49 48 48 45 42 39 41 48 49 47 49 49 50 53 51 49 46 38 33
0 0 0 0 0 0 0 0 2 4 8 18 28 33 37 43 48 56 66 75 80 80 77 74 73 71 69 66 61 54 47 45 43 40 37 35 37 42 43 44 48 48 50 54 55 52 48 40 34
0 0 0 0 0 0 0 1 4 7 11 21 34 42 47 50 53 57 64 70 75 75 73 72 72 71 69 66 61 54 46 41 38 37 34 30 30 34 36 40 45 47 49 53 52 48 42 36 32
0 0 0 0 0 0 0 2 6 10 16 27 40 48 52 54 55 57 59 62 67 69 68 69 69 71 69 65 59 52 43 36 32 30 27 25 25 27 30 35 40 44 47 48 44 38 31 26 24
0 0 0 0 0 0 0 1 6 14 24 36 46 51 53 54 55 54 51 52 57 62 64 64 64 64 64 61 56 49 40 32 25 21 18 16 17 18 20 24 29 34 38 39 36 30 24 19 16
0 0 0 0 0 0 0 1 6 17 31 42 50 52 50 47 46 45 42 40 43 51 56 57 56 55 54 53 50 44 37 28 21 15 12 9 8 8 8 10 13 18 22 23 23 20 17 13 10
0 0 0 0 0 0 0 0 6 19 32 42 47 44 36 31 30 32 31 30 33 38 43 45 45 45 44 42 41 37 31 23 16 10 7 5 3 1 1 1 3 5 6 7 9 9 9 7 5
0 0 0 0 0 0 0 0 6 18 29 38 41 34 24 18 18 19 20 21 23 26 29 31 32 33 34 33 31 27 22 17 11 5 2 1 0 0 0 0 0 0 0 0 1 2 2 2 1
0 0 0 0 0 0 0 1 8 17 25 31 34 29 21 14 11 9 8 10 12 13 15 18 19 20 21 21 19 16 13 10 6 2 0 0 0 0 0 0 0 0 0 0 0 0 0 0 0
0 0 0 0 0 0 0 3 11 19 22 25 28 25 19 12 7 4 2 2 3 4 5 6 7 8 8 8 8 7 5 4 2 1 0 0 0 0 0 0 0 0 0 0 0 0 0 0 0
0 0 0 0 0 0 0 3 11 18 20 19 20 19 14 8 4 2 1 0 0 0 1 1 1 1 1 1 1 2 1 1 0 0 0 0 0 0 0 0 0 0 0 0 0 0 0 0 0
0 0 0 0 0 0 0 2 7 13 14 13 13 12 10 5 2 1 0 0 0 0 0 0 0 0 0 0 0 0 0 0 0 0 0 0 0 0 0 0 0 0 0 0 0 0 0 0 0
0 0 0 0 0 0 0 1 4 8 10 10 9 8 4 2 1 0 0 0 0 0 0 0 0 0 0 0 0 0 0 0 0 0 0 0 0 0 0 0 0 0 0 0 0 0 0 0 0
0 0 0 0 0 0 0 0 3 8 10 10 9 5 2 1 0 0 0 0 0 0 0 0 0 0 0 0 0 0 0 0 0 0 0 0 0 0 0 0 0 0 0 0 0 0 0 0 0

GEFSSGP_con_probscp_096.txt.gz
Probability
0 0 0 0 0 0 0 0 0 0 0 0 0 1 2 2 1 1 2 5 7 9 9 8 7 7 5 4 2 2 2 3 3 3 4 5 7 7 7 7 6 6 3 1 0 0 0 0 0
0 0 0 0 0 0 0 0 0 0 0 0 0 2 4 4 3 2 4 8 14 17 16 14 13 12 10 7 5 3 3 3 3 3 3 4 4 4 3 3 4 3 1 0 0 0 0 0 0
0 0 0 0 0 0 0 0 0 0 0 0 1 2 4 5 4 5 10 18 26 30 30 28 27 24 19 15 10 6 4 3 3 4 4 3 3 2 1 1 1 1 0 0 0 0 0 0 0
0 0 0 0 0 0 0 0 0 0 0 0 2 7 9 10 13 20 28 34 39 41 41 42 41 37 30 24 18 12 8 6 5 5 6 5 3 2 1 1 0 0 0 0 0 0 0 0 0
0 0 0 0 0 0 0 0 0 0 0 2 7 16 22 27 35 46 51 50 50 51 50 50 52 49 40 32 27 22 16 13 10 9 9 7 5 4 3 2 1 0 0 0 0 0 0 0 0
0 0 0 0 0 0 0 0 0 0 0 3 13 27 38 48 59 65 64 58 57 60 59 58 58 55 47 41 40 35 27 21 18 14 12 9 7 5 4 3 1 0 0 0 0 0 0 0 0
0 0 0 0 0 0 0 0 0 0 0 4 18 37 49 62 72 73 70 66 63 64 67 68 64 58 53 51 50 46 38 31 28 24 18 12 9 6 4 3 2 1 0 0 0 0 0 0 0
0 0 0 0 0 0 0 0 0 0 0 5 20 37 51 67 78 81 80 76 71 68 69 72 70 64 61 59 56 52 45 40 38 34 24 15 9 6 4 3 2 1 0 0 0 0 0 0 0
0 0 0 0 0 0 0 0 0 0 1 8 23 38 55 72 83 88 86 82 77 72 70 72 72 70 69 65 61 56 51 48 46 41 31 19 12 9 5 2 1 0 0 0 0 0 0 0 0
0 0 0 0 0 0 0 0 0 0 1 9 25 47 68 81 88 89 85 80 76 74 72 71 71 71 72 71 68 65 60 54 50 44 35 25 19 14 7 2 0 0 0 0 0 0 0 0 0
0 0 0 0 0 0 0 0 0 0 1 7 23 49 72 83 86 87 83 78 76 75 73 71 70 69 70 71 72 72 68 61 53 48 40 30 23 16 9 4 3 2 1 0 0 0 0 0 0
0 0 0 0 0 0 0 0 0 1 3 8 21 42 63 74 77 78 79 79 77 75 72 68 67 67 68 70 71 71 69 63 56 49 42 32 23 16 8 6 7 6 3 1 0 0 0 0 0
0 0 0 0 0 0 0 0 0 3 8 15 24 36 49 61 66 68 73 77 76 72 65 60 59 62 66 68 66 63 60 57 53 46 38 29 22 15 9 7 9 8 4 2 1 0 0 0 0
0 0 0 0 0 0 0 0 1 6 13 21 27 32 40 50 58 63 67 69 67 63 56 51 51 55 59 61 59 54 49 45 42 36 27 21 18 14 9 6 7 7 5 3 2 1 0 0 0
0 0 0 0 0 0 0 0 4 10 17 23 28 32 38 45 52 58 58 55 53 51 48 46 47 48 49 52 53 48 41 35 30 24 16 11 11 11 8 5 5 5 5 4 4 3 1 0 0
0 0 0 0 0 0 0 0 5 13 20 25 30 36 41 45 50 52 49 44 42 43 44 45 45 43 44 47 48 44 38 31 22 15 9 5 5 6 6 4 3 3 5 5 6 5 3 2 1
0 0 0 0 0 0 0 0 5 16 26 31 36 42 47 50 51 50 45 41 40 40 41 44 44 43 44 43 39 36 33 28 20 14 9 5 3 4 4 4 2 1 3 5 6 6 5 4 2
0 0 0 0 0 0 0 2 7 19 31 39 45 51 54 53 50 47 43 40 38 39 40 41 42 42 41 38 32 28 27 24 20 16 12 7 5 4 4 4 2 1 1 3 5 5 5 4 3
0 0 0 0 0 0 1 3 10 21 34 44 51 56 56 52 46 42 39 36 35 35 36 37 37 37 36 34 28 24 22 20 16 12 10 8 6 5 5 4 3 2 1 1 3 3 4 3 3
0 0 0 0 0 0 1 4 11 21 33 44 50 53 51 47 41 37 33 30 28 28 29 32 34 34 33 32 28 24 22 17 10 7 7 6 5 4 4 3 3 3 1 1 1 3 3 3 2
0 0 0 0 0 0 1 3 8 17 30 40 42 43 41 38 36 34 30 26 23 21 22 25 30 31 30 28 27 24 21 13 6 5 5 4 3 2 2 3 3 3 2 1 1 2 2 1 1
0 0 0 0 0 0 0 1 4 11 22 31 33 31 30 28 27 27 26 23 19 16 15 17 20 23 23 22 21 21 16 10 5 3 4 3 3 3 3 3 3 3 3 1 0 1 1 0 0
0 0 0 0 0 0 0 0 1 6 14 23 27 25 21 18 18 18 18 16 12 9 7 9 11 13 13 13 14 15 12 8 4 3 3 3 3 2 3 3 3 3 2 1 0 0 0 0 0
0 0 0 0 0 0 0 0 0 2 9 19 24 21 15 12 11 10 9 7 4 2 2 3 6 8 8 8 9 9 8 5 4 3 3 2 1 1 1 2 2 2 2 1 0 0 0 0 0
0 0 0 0 0 0 0 0 0 1 7 15 18 15 11 8 6 4 3 2 1 0 0 1 3 6 6 6 6 5 3 2 2 2 1 1 0 0 0 1 1 1 1 0 0 0 0 0 0
0 0 0 0 0 0 0 0 0 2 6 11 13 11 7 4 2 1 0 0 0 0 0 0 2 4 4 3 3 2 1 1 1 1 0 0 0 0 0 0 0 0 0 0 0 0 0 0 0
0 0 0 0 0 0 0 0 0 2 6 8 9 8 6 2 0 0 0 0 0 0 0 0 0 1 1 1 1 0 0 0 0 0 0 0 0 0 0 0 0 0 0 0 0 0 0 0 0
0 0 0 0 0 0 0 0 0 2 4 5 5 4 4 2 0 0 0 0 0 0 0 0 0 0 0 0 0 0 0 0 0 0 0 0 0 0 0 0 0 0 0 0 0 0 0 0 0
0 0 0 0 0 0 0 0 0 1 2 2 2 1 1 0 0 0 0 0 0 0 0 0 0 0 0 0 0 0 0 0 0 0 0 0 0 0 0 0 0 0 0 0 0 0 0 0 0
0 0 0 0 0 0 0 0 0 0 1 1 1 0 0 0 0 0 0 0 0 0 0 0 0 0 0 0 0 0 0 0 0 0 0 0 0 0 0 0 0 0 0 0 0 0 0 0 0

GEFSSGP_con_probscp_102.txt.gz
Probability
0 0 0 0 0 0 0 0 0 0 0 0 0 0 0 0 0 0 0 1 4 7 7 7 7 5 2 1 4 9 15 18 19 19 17 14 11 8 5 3 3 2 1 0 0 0 0 0 0
0 0 0 0 0 0 0 0 0 0 0 0 0 0 0 0 0 0 0 2 7 10 9 8 9 7 4 2 4 10 13 13 15 18 17 15 12 9 7 5 3 2 1 0 0 0 0 0 0
0 0 0 0 0 0 0 0 0 0 0 0 0 0 0 0 0 0 1 5 11 13 10 10 12 10 6 5 7 11 12 12 12 15 17 16 11 9 8 6 3 3 2 1 0 0 0 0 0
0 0 0 0 0 0 0 0 0 0 0 0 0 1 1 1 1 2 5 11 18 19 15 16 20 19 14 12 14 16 15 16 15 15 17 15 10 8 8 5 3 3 2 1 0 0 0 0 0
0 0 0 0 0 0 0 0 0 0 0 0 0 1 2 3 4 7 11 18 26 30 27 28 34 34 27 24 23 22 20 20 20 19 19 17 12 10 8 6 4 3 2 1 0 0 0 0 0
0 0 0 0 0 0 0 0 0 0 0 0 0 2 6 9 11 15 19 24 33 41 40 40 45 47 42 38 34 31 27 26 26 24 23 22 17 12 9 8 6 4 2 0 0 0 0 0 0
0 0 0 0 0 0 0 0 0 0 0 1 1 4 11 18 25 30 32 32 38 46 49 49 49 50 51 50 45 40 37 35 34 30 28 27 22 14 9 9 8 5 2 1 0 0 0 0 0
0 0 0 0 0 0 0 0 0 1 1 3 4 7 18 36 49 54 52 47 43 47 54 56 54 55 57 58 55 51 46 44 41 37 33 31 27 19 12 11 9 5 2 1 0 1 1 1 0
0 0 0 0 0 0 0 0 0 0 2 5 9 15 33 59 74 75 69 59 49 47 54 60 62 63 64 64 65 64 59 53 49 45 41 36 31 25 18 12 8 4 1 0 0 1 2 2 1
0 0 0 0 0 0 0 0 0 0 1 5 12 27 52 75 84 80 70 59 50 46 52 61 65 66 68 69 73 75 71 64 59 55 49 42 35 29 23 16 10 6 4 2 2 3 4 3 1
0 0 0 0 0 0 0 0 1 2 2 2 12 35 63 78 82 76 64 54 49 47 51 58 62 64 66 69 74 77 76 71 66 61 54 46 38 34 29 24 18 13 10 6 5 6 6 4 1
0 0 0 0 0 0 0 2 4 5 5 6 18 42 64 74 76 72 61 54 53 52 51 55 60 63 65 67 70 72 73 72 68 63 55 45 38 33 30 26 23 19 14 8 7 7 6 4 1
0 0 0 0 0 0 1 4 5 7 10 18 31 49 62 67 67 64 59 57 58 57 53 53 58 61 62 65 67 67 67 66 65 60 53 42 34 28 23 20 19 18 13 9 7 6 4 2 1
0 0 0 0 0 1 3 6 5 7 15 27 37 47 56 58 55 53 53 54 57 58 53 50 53 55 57 59 61 61 60 59 57 54 47 38 30 23 17 14 14 14 11 7 5 4 2 0 0
0 0 0 0 0 1 4 7 6 9 17 27 32 37 43 46 43 42 42 43 47 50 48 46 46 48 49 50 50 52 54 52 50 46 41 36 31 24 16 12 10 9 7 5 4 3 2 1 1
0 0 0 0 0 1 4 8 10 12 18 23 24 26 31 34 33 29 28 29 32 37 41 42 41 41 40 40 41 43 47 46 43 39 36 35 32 25 16 11 8 6 5 5 4 3 3 2 2
0 0 0 0 0 1 4 8 12 14 16 18 19 20 24 28 28 22 17 17 22 28 35 38 37 35 35 35 35 36 38 39 35 31 28 29 29 24 16 11 7 6 5 5 4 3 2 2 1
0 0 0 0 0 1 3 7 10 11 12 14 14 15 18 24 24 19 15 15 19 24 28 30 30 30 30 30 28 27 28 27 25 22 21 21 22 22 17 12 8 6 5 4 2 1 0 1 1
0 0 0 0 0 0 1 4 5 6 8 9 8 9 13 18 19 19 18 18 19 21 22 21 20 20 22 22 20 19 19 17 16 15 14 15 17 18 15 11 9 7 5 3 2 1 1 1 1
0 0 0 0 0 0 0 1 2 3 4 4 4 6 9 13 16 17 18 17 17 16 15 14 11 10 13 15 15 15 14 11 10 9 10 11 13 13 10 8 8 7 6 4 3 2 2 1 1
0 0 0 0 0 0 0 0 1 1 2 2 2 4 6 9 10 11 11 12 11 11 10 8 6 5 8 11 13 13 11 9 8 7 7 7 8 7 6 5 5 5 4 3 3 3 3 2 1
0 0 0 0 0 0 0 0 0 0 1 2 3 4 4 5 4 4 5 5 5 5 4 4 4 3 5 7 10 10 9 8 7 6 4 4 4 4 4 4 4 4 3 3 3 3 3 3 3
0 0 0 0 0 0 0 0 0 0 1 3 4 4 3 2 1 2 2 2 1 1 1 2 2 1 1 3 6 7 7 7 6 4 4 3 3 3 2 2 2 2 3 3 3 3 3 3 3
0 0 0 0 0 0 0 0 0 0 1 3 4 3 1 0 0 1 1 1 0 0 0 1 1 0 0 1 3 6 7 6 6 5 4 3 2 1 1 1 1 1 1 2 2 2 2 2 2
0 0 0 0 0 0 0 0 0 0 1 2 3 2 0 0 0 0 0 0 0 0 0 0 0 0 0 1 3 5 6 7 6 5 3 1 1 0 0 0 0 0 0 1 1 1 1 1 1
0 0 0 0 0 0 0 0 0 0 1 2 3 2 0 0 0 0 0 0 0 0 0 0 0 0 0 1 2 3 4 4 3 2 1 0 0 0 0 0 0 0 0 0 0 0 0 0 0
0 0 0 0 0 0 0 0 0 0 1 3 2 1 0 0 0 0 0 0 0 0 0 0 0 0 0 0 1 2 1 1 1 0 0 0 0 0 0 0 0 0 0 0 0 0 0 0 0
0 0 0 0 0 0 0 0 0 1 2 2 1 0 0 0 0 0 0 0 0 0 0 0 0 0 0 0 0 0 0 0 0 0 0 0 0 0 0 0 0 0 0 0 0 0 0 0 0
0 0 0 0 0 0 0 0 0 1 1 1 0 0 0 0 0 0 0 0 0 0 0 0 0 0 0 0 0 0 0 0 0 0 0 0 0 0 0 0 0 0 0 0 0 0 0 0 0
0 0 0 0 0 0 0 0 0 0 1 0 0 0 0 0 0 0 0 0 0 0 0 0 0 0 0 0 0 0 0 0 0 0 0 0 0 0 0 0 0 0 0 0 0 0 0 0 0

GEFSSGP_con_probscp_108.txt.gz
Probability
0 0 0 0 0 0 0 0 0 0 0 0 0 0 0 0 0 0 0 2 7 12 12 7 5 5 4 6 9 13 15 14 10 5 2 2 3 2 2 4 4 4 3 3 3 3 2 1 0
0 0 0 0 0 0 0 0 0 0 0 0 0 0 0 0 0 0 1 4 8 11 10 7 7 7 7 12 19 24 26 24 19 13 8 8 9 7 6 5 5 4 3 3 3 3 3 2 1
0 0 0 0 0 0 0 0 0 0 0 0 0 1 2 1 0 0 2 6 7 7 6 8 10 11 13 20 31 41 46 44 37 30 25 22 19 15 11 8 5 4 4 4 3 3 3 3 3
0 0 0 0 0 0 0 0 0 0 0 0 1 3 4 3 1 1 4 6 5 2 3 7 10 12 17 27 40 53 60 60 55 49 44 38 30 23 16 10 7 6 6 5 4 3 2 3 3
0 0 0 0 0 0 0 0 0 0 0 0 1 4 6 6 5 4 6 6 3 1 1 5 9 13 19 30 44 54 62 66 65 61 55 48 40 32 23 16 11 9 8 7 5 3 2 3 4
0 0 0 0 0 0 0 0 0 0 0 1 3 7 12 14 13 10 8 6 4 3 3 4 8 13 19 29 40 49 57 64 68 67 61 55 50 42 34 26 20 15 10 7 6 4 3 4 5
0 0 0 0 0 0 0 0 0 1 2 4 6 11 19 25 25 20 15 11 8 9 8 5 5 9 13 20 29 39 49 58 63 64 61 58 53 47 40 34 29 24 17 11 7 6 5 5 5
0 0 0 0 0 0 0 0 0 2 6 10 13 18 28 37 37 32 26 20 17 17 15 11 10 10 9 11 18 29 41 50 53 54 56 52 44 38 33 31 31 30 23 16 10 8 7 6 4
0 0 0 0 0 0 0 0 0 3 9 16 23 29 38 44 45 43 38 32 27 26 23 20 19 17 13 13 18 23 31 38 40 42 45 39 27 22 22 26 33 32 25 19 14 10 8 6 3
0 0 0 0 0 0 0 0 1 3 10 19 28 37 42 42 42 43 43 41 39 38 33 28 26 25 24 27 32 30 29 32 33 37 39 33 28 26 27 36 42 36 27 21 16 11 6 3 1
0 0 0 0 0 0 0 1 2 6 12 19 26 33 37 36 35 36 39 43 45 46 42 38 35 37 41 47 51 47 44 44 46 49 48 45 47 48 47 50 50 43 35 27 20 12 5 1 0
0 0 0 0 0 0 0 1 5 10 14 17 22 27 30 32 33 33 36 41 45 46 47 48 49 53 59 63 64 61 60 62 64 64 62 62 65 65 63 61 56 51 47 41 31 20 10 5 3
0 0 0 0 0 0 0 1 6 12 14 16 21 26 27 31 36 40 42 45 47 48 51 54 58 63 68 71 69 66 65 67 69 69 69 70 73 75 74 70 65 59 56 53 45 33 24 16 11
0 0 0 0 0 0 0 1 6 12 16 18 23 27 30 35 41 46 49 51 53 53 53 55 59 65 70 71 68 66 65 66 69 70 71 74 77 80 80 78 71 62 56 55 50 43 36 30 24
0 0 0 0 0 0 0 2 8 14 17 20 24 28 31 37 43 48 50 51 52 52 52 53 56 61 65 65 62 61 62 64 67 68 68 70 73 76 77 76 70 63 58 56 54 50 47 43 38
0 0 0 0 0 0 0 4 11 15 18 21 24 27 31 36 41 44 44 43 43 46 48 48 48 50 54 55 53 52 53 56 60 60 57 57 60 64 67 66 64 64 63 61 60 60 59 55 51
0 0 0 0 0 0 1 5 12 16 18 20 21 23 28 33 35 35 35 34 34 38 42 44 43 43 44 45 42 40 41 44 46 47 45 43 45 48 53 57 58 58 59 60 62 65 66 62 59
0 0 0 0 0 0 1 6 11 15 16 15 15 19 25 27 26 24 24 25 27 31 35 39 41 42 41 38 35 34 33 34 36 37 36 35 34 36 41 47 49 47 49 53 56 59 61 59 57
0 0 0 0 0 0 2 6 10 12 12 11 12 17 21 20 18 16 17 20 23 25 27 31 36 37 37 35 33 33 33 33 33 32 31 30 28 29 32 37 40 41 43 46 48 49 50 48 47
0 0 0 0 0 0 1 5 9 10 11 10 11 14 16 15 13 12 13 17 20 21 22 25 28 28 28 30 30 33 34 33 31 30 28 26 25 25 27 30 34 37 40 40 38 39 38 35 32
0 0 0 0 0 0 1 3 5 7 9 10 11 11 11 11 10 9 11 14 17 18 18 20 21 22 23 25 26 28 30 29 27 25 23 21 20 20 22 24 26 30 31 30 30 31 29 24 20
0 0 0 0 0 0 0 1 2 4 6 7 8 8 8 8 8 8 8 10 12 12 12 13 16 19 21 22 21 23 25 24 22 20 18 15 14 16 17 17 18 20 21 21 22 23 21 17 13
0 0 0 0 0 0 0 0 2 4 4 4 5 6 7 8 8 7 5 6 6 6 7 8 11 13 15 17 19 21 22 20 18 16 14 12 12 13 13 13 13 14 15 15 16 16 15 13 11
0 0 0 0 0 0 0 0 2 3 3 5 6 7 7 6 5 3 3 4 4 4 4 5 7 8 8 11 15 17 17 17 16 14 13 13 11 10 10 10 11 12 12 12 12 11 10 9 8
0 0 0 0 0 0 0 0 1 2 3 8 11 10 7 5 2 1 2 3 3 3 2 3 4 4 4 6 8 10 11 12 11 11 12 12 9 7 6 6 7 9 10 8 7 6 5 4 3
0 0 0 0 0 0 0 0 1 1 4 10 12 10 6 4 2 2 2 2 1 1 1 1 1 1 1 2 2 4 6 7 7 7 7 7 5 3 3 3 3 4 5 3 2 2 1 1 0
0 0 0 0 0 0 0 0 1 1 2 6 8 7 5 3 1 1 1 1 0 0 0 0 0 0 0 0 0 2 3 4 4 4 3 2 1 1 1 1 1 1 1 0 0 0 0 0 0
0 0 0 0 0 0 0 0 0 0 1 2 4 5 4 2 0 0 0 0 0 0 0 0 0 0 0 0 0 1 2 3 3 2 1 0 0 0 0 0 0 0 0 0 0 0 0 0 0
0 0 0 0 0 0 0 0 0 0 1 3 4 5 3 1 0 0 0 0 0 0 0 0 0 0 0 0 0 0 1 1 2 1 0 0 0 0 0 0 0 0 0 0 0 0 0 0 0
0 0 0 0 0 0 0 0 0 1 2 4 6 5 2 0 0 0 0 0 0 0 0 0 0 0 0 0 0 0 0 0 1 0 0 0 0 0 0 0 0 0 0 0 0 0 0 0 0

GEFSSGP_con_probscp_114.txt.gz
Probability
0 0 0 0 0 0 0 0 0 0 1 0 0 0 0 1 2 4 12 34 48 35 16 7 5 3 2 1 1 2 2 1 0 0 0 0 0 0 0 0 0 0 0 0 0 0 0 0 0
0 0 0 0 0 0 0 0 0 0 1 0 0 1 1 3 5 6 17 38 43 26 12 8 6 4 3 2 2 2 3 2 1 0 0 0 0 0 0 0 0 0 0 0 0 0 0 0 0
0 0 0 0 0 0 0 0 0 0 0 1 2 4 6 7 7 8 20 33 30 16 10 11 10 8 5 4 3 3 3 2 1 0 0 0 0 1 1 1 0 0 0 0 0 0 0 0 0
0 0 0 0 0 0 0 0 0 0 0 1 6 14 19 18 12 11 18 23 19 12 11 13 14 12 10 7 4 3 3 3 4 2 1 1 2 3 3 2 1 1 0 0 0 0 0 0 0
0 0 0 0 0 0 0 0 0 0 0 2 11 26 34 29 19 13 15 18 18 16 14 14 16 15 14 12 9 8 8 9 10 9 8 8 8 8 6 4 3 2 1 0 0 1 1 1 1
0 0 0 0 0 0 0 0 0 0 2 5 14 31 39 32 21 14 12 16 23 25 20 16 16 16 16 15 15 16 17 17 19 21 20 19 18 15 11 8 6 4 3 1 2 3 3 2 2
0 0 0 0 0 0 0 0 0 1 5 9 17 31 40 36 26 15 11 19 31 33 24 16 14 14 15 17 20 23 24 25 26 27 27 25 23 19 15 12 10 9 8 5 5 6 5 4 4
0 0 0 0 0 0 0 0 0 3 8 13 19 31 44 45 34 22 18 28 40 38 24 14 12 12 12 15 20 24 28 30 30 28 24 21 18 16 14 14 16 17 15 12 11 11 10 8 6
0 0 0 0 0 0 0 0 0 3 8 13 21 33 46 48 39 30 31 39 47 41 24 13 11 9 8 12 18 21 22 26 25 22 21 16 11 9 10 18 31 32 26 21 17 17 15 11 8
0 0 0 0 0 0 0 1 2 4 8 15 24 37 45 44 37 35 41 49 51 44 28 17 16 15 14 16 19 14 13 16 14 17 23 19 12 12 16 33 51 50 39 30 25 22 18 11 7
0 0 0 0 0 0 0 2 5 8 12 19 29 40 43 39 36 40 47 52 52 46 34 26 26 28 30 33 26 15 16 20 18 24 34 29 23 25 34 54 64 59 47 37 32 28 20 11 7
0 0 0 0 0 0 1 5 8 11 15 23 33 41 41 38 39 44 50 53 53 48 39 35 38 41 48 52 43 30 33 39 40 47 52 42 37 40 51 64 66 57 46 38 34 29 19 11 8
0 0 0 0 0 0 2 6 9 12 17 25 32 38 40 41 45 48 52 55 54 48 43 43 48 54 63 70 63 52 54 58 61 69 67 54 50 52 58 65 65 55 44 37 32 26 20 15 12
0 0 0 0 0 0 2 5 9 11 17 24 28 34 40 46 49 50 53 53 50 47 45 49 57 64 74 80 75 66 63 66 71 76 73 64 61 62 62 64 63 54 45 41 36 30 28 24 20
0 0 0 0 0 0 1 5 8 11 16 22 28 34 41 49 52 52 53 51 48 47 48 55 63 72 78 79 74 65 58 61 70 75 75 70 68 67 65 63 60 53 47 47 46 43 40 36 33
0 0 0 0 0 0 2 6 8 10 14 23 32 36 41 48 52 52 51 51 50 52 55 60 67 75 77 75 69 60 53 55 63 69 71 71 68 64 62 61 57 51 47 47 48 48 43 40 40
0 0 0 0 0 0 2 5 8 9 15 27 35 37 39 43 47 48 49 51 54 59 62 63 67 72 72 69 65 60 55 54 56 60 63 64 58 54 56 56 53 49 45 41 42 42 38 35 36
0 0 0 0 0 0 1 4 6 8 15 28 37 38 38 39 40 41 43 47 53 59 62 63 65 67 66 64 63 62 59 57 55 55 54 51 47 46 49 50 49 47 42 39 38 38 34 30 29
0 0 0 0 0 0 1 4 5 8 15 27 37 40 39 37 35 33 33 38 46 53 56 59 61 62 62 63 64 65 63 60 56 52 47 43 41 42 44 44 43 43 40 38 37 35 32 29 29
0 0 0 0 0 0 1 4 7 11 18 28 37 40 38 34 28 24 23 26 32 39 45 51 55 57 58 60 62 63 61 57 53 48 43 40 39 39 38 38 39 39 38 36 34 31 28 27 28
0 0 0 0 0 0 1 3 9 16 22 27 34 37 35 28 20 16 14 16 19 25 32 39 46 50 52 53 55 58 56 52 48 45 42 40 38 36 33 32 34 35 34 32 30 26 24 23 23
0 0 0 0 0 0 0 3 11 21 25 26 29 33 31 24 15 10 10 10 12 17 22 28 34 40 43 46 48 49 49 46 43 42 41 39 35 31 28 26 27 28 27 25 23 21 19 17 17
0 0 0 0 0 0 0 3 12 23 28 26 26 28 27 19 11 8 9 9 10 12 16 20 25 30 35 39 40 40 39 38 38 39 39 36 30 25 22 20 20 20 19 17 15 15 14 13 14
0 0 0 0 0 0 0 2 10 20 26 26 27 28 22 14 9 7 7 7 8 8 11 14 18 23 28 32 33 32 29 28 30 32 32 29 24 19 16 16 15 15 14 13 11 11 11 11 11
0 0 0 0 0 0 0 2 8 17 24 28 32 31 22 12 7 6 5 5 5 5 7 9 11 14 17 21 24 24 22 20 21 23 23 19 15 13 13 12 12 12 11 10 10 9 10 9 8
0 0 0 0 0 0 0 3 9 17 25 31 35 32 21 11 7 6 4 3 3 3 4 5 5 5 6 9 13 14 14 14 15 16 14 9 7 7 8 7 7 7 6 7 7 8 8 7 5
0 0 0 0 0 0 0 3 9 18 27 33 35 29 19 11 8 5 3 2 2 2 2 2 1 1 1 2 4 7 8 9 10 10 8 4 3 3 3 2 2 2 3 4 4 4 4 3 2
0 0 0 0 0 0 0 2 7 15 25 31 31 25 18 11 6 3 1 1 1 1 1 1 0 0 0 0 1 2 3 4 5 5 4 2 1 1 0 0 0 1 1 2 2 1 1 1 0
0 0 0 0 0 0 0 1 3 10 20 27 27 22 16 9 3 1 0 0 0 0 0 0 0 0 0 0 0 0 1 1 2 2 1 1 1 0 0 0 0 0 0 1 1 0 0 0 0
0 0 0 0 0 0 0 0 2 8 16 25 26 21 14 7 2 0 0 0 0 0 0 0 0 0 0 0 0 0 0 0 1 1 0 0 0 0 0 0 0 0 0 0 0 0 0 0 0

GEFSSGP_con_probscp_120.txt.gz
Probability
0 0 0 0 0 0 0 0 0 0 0 1 4 12 18 17 12 6 5 8 10 10 8 8 9 10 9 7 4 1 0 0 0 0 0 0 0 0 0 0 0 0 0 0 0 0 0 0 0
0 0 0 0 0 0 0 0 0 0 1 3 8 17 24 23 17 9 6 9 14 14 10 8 10 12 11 8 5 2 0 0 0 0 0 0 0 0 0 0 0 0 0 0 0 0 0 0 0
0 0 0 0 0 0 0 0 0 1 3 7 15 24 26 23 17 12 10 13 19 19 14 10 12 15 14 10 7 4 1 0 0 0 0 0 0 0 0 0 0 0 0 0 0 0 0 0 0
0 0 0 0 0 0 0 0 1 3 6 12 22 29 25 18 14 15 17 19 22 22 17 13 14 16 15 11 7 5 2 1 0 0 0 0 0 0 0 0 0 0 0 0 0 0 0 0 0
0 0 0 0 0 0 0 0 3 7 11 17 27 32 27 20 19 22 23 24 28 28 23 18 16 18 18 16 11 6 3 1 0 0 0 0 0 0 0 0 0 0 0 0 0 0 0 0 0
0 0 0 0 0 0 0 1 6 10 14 21 29 33 30 26 27 27 27 29 35 36 30 22 17 18 21 20 15 10 5 1 0 0 0 0 0 0 0 0 0 0 0 0 0 1 0 0 0
0 0 0 0 0 0 0 2 7 11 14 21 28 32 30 29 32 34 33 35 40 41 36 28 19 17 18 17 15 12 7 4 1 0 0 0 1 0 0 0 0 0 0 0 0 0 0 0 0
0 0 0 0 0 0 1 4 7 10 13 19 27 31 32 34 39 44 44 41 42 41 38 32 23 17 14 13 11 10 7 5 3 1 0 1 1 1 1 1 1 1 1 0 0 1 2 1 1
0 0 0 0 0 0 2 5 8 10 12 20 29 36 40 45 50 51 47 42 38 35 35 31 24 18 15 12 9 7 5 4 4 3 2 2 3 3 3 3 3 3 3 1 2 4 5 4 4
0 0 0 0 0 0 2 5 8 11 14 22 34 44 48 51 53 48 40 34 28 25 27 26 21 17 14 11 9 6 4 4 5 5 4 4 4 4 3 4 6 6 5 4 5 6 7 8 9
0 0 0 0 0 0 2 5 9 12 15 22 34 44 48 48 46 40 31 25 20 17 19 19 17 12 9 8 6 4 4 4 4 5 6 6 5 4 3 3 6 7 8 8 8 9 9 9 9
0 0 0 0 0 2 4 6 10 14 17 22 31 38 41 38 35 31 25 19 13 12 12 12 12 9 6 5 4 3 4 5 5 6 7 7 5 3 2 2 5 7 9 9 10 11 11 9 7
0 0 0 0 2 4 5 8 13 18 22 25 29 32 31 28 25 24 21 16 10 8 9 9 10 10 7 5 4 3 5 6 5 6 8 7 5 4 2 3 6 7 8 7 8 9 9 7 5
0 0 0 1 3 4 6 8 13 20 26 29 28 27 25 22 19 16 15 14 10 8 9 10 11 11 9 5 4 4 4 4 3 4 6 6 7 5 3 3 7 9 7 6 5 4 4 4 3
0 0 0 1 2 3 5 8 11 19 31 33 29 25 23 20 15 11 11 11 10 11 12 12 12 13 10 6 5 5 4 3 3 3 4 6 7 7 5 4 7 9 8 6 3 1 1 2 2
0 0 0 0 0 2 4 7 10 21 35 38 30 24 21 18 13 9 8 9 10 13 14 13 12 12 10 7 7 8 8 7 8 7 6 6 6 7 8 8 7 8 9 8 5 2 2 2 2
0 0 0 0 0 1 5 9 14 25 37 39 31 23 19 16 12 7 6 7 9 11 11 9 8 7 7 7 8 12 14 13 13 10 7 6 7 8 10 10 9 9 10 10 8 5 5 4 3
0 0 0 0 0 1 6 13 21 26 33 34 28 22 18 15 12 8 6 6 7 7 6 4 3 3 4 6 10 15 17 15 13 11 8 8 8 8 8 9 10 11 11 11 10 8 7 6 4
0 0 0 0 0 2 8 18 25 26 27 28 26 22 17 14 13 11 7 6 5 4 2 2 2 2 3 5 9 14 16 14 11 9 9 8 8 7 7 8 9 11 11 11 10 8 7 6 5
0 0 0 0 0 3 10 20 25 25 27 27 25 19 13 11 12 11 8 5 4 3 2 2 1 1 1 4 8 12 14 12 11 11 9 8 8 9 9 8 9 9 10 10 9 8 7 6 6
0 0 0 0 0 2 7 14 19 25 28 26 22 15 11 10 10 8 6 4 3 1 1 1 1 0 1 3 6 10 12 12 13 12 8 6 7 9 9 8 8 9 9 9 9 8 7 7 7
0 0 0 0 0 1 2 5 12 24 30 27 20 16 13 10 7 5 3 2 1 0 0 1 1 1 1 1 4 6 8 9 9 7 5 4 6 8 7 5 6 8 8 7 7 7 8 8 7
0 0 0 0 0 0 0 1 7 20 30 29 22 17 14 9 5 2 1 0 0 1 1 2 2 2 1 0 1 3 3 4 4 3 3 3 5 6 6 4 4 5 5 5 6 6 7 8 7
0 0 0 0 0 0 0 0 4 13 25 29 25 19 13 6 3 1 1 1 1 2 2 2 1 1 0 0 0 1 1 2 3 3 3 3 4 4 4 3 3 3 3 4 4 5 6 7 7
0 0 0 0 0 0 0 0 1 6 17 26 26 20 12 6 3 2 2 2 2 2 1 1 0 0 0 0 0 0 0 1 2 3 2 2 2 2 1 1 1 1 1 2 3 3 4 5 6
0 0 0 0 0 0 0 0 0 4 14 22 23 16 10 6 4 3 3 2 1 1 0 0 0 0 0 0 0 0 0 0 1 1 1 1 1 0 0 0 0 0 0 1 2 2 2 3 4
0 0 0 0 0 0 0 0 1 5 12 17 16 11 7 5 4 3 2 1 0 0 0 0 0 0 0 0 0 0 0 0 0 0 0 0 0 0 0 0 0 0 0 0 1 1 1 2 2
0 0 0 0 0 0 0 0 1 4 9 11 11 8 6 4 3 3 1 0 0 0 0 0 0 0 0 0 0 0 0 0 0 0 0 0 0 0 0 0 0 0 0 0 0 0 0 1 1
0 0 0 0 0 0 0 0 0 2 5 7 7 6 4 3 3 2 1 0 0 0 0 0 0 0 0 0 0 0 0 0 0 0 0 0 0 0 0 0 0 0 0 0 0 0 0 0 0
0 0 0 0 0 0 0 0 0 1 2 4 5 5 4 3 2 1 0 0 0 0 0 0 0 0 0 0 0 0 0 0 0 0 0 0 0 0 0 0 0 0 0 0 0 0 0 0 0

GEFSSGP_con_probscp_126.txt.gz
Probability
0 0 0 0 0 0 0 0 0 0 0 1 2 3 5 4 2 2 2 3 5 5 6 8 9 9 11 14 17 17 15 13 12 10 8 7 6 3 1 0 0 0 1 1 0 0 0 0 0
0 0 0 0 0 0 0 0 0 0 0 0 1 2 4 4 3 4 4 5 7 9 9 10 13 14 15 16 19 19 15 12 12 12 8 6 5 3 1 0 0 0 1 1 0 0 0 0 0
0 0 0 0 0 0 0 0 0 0 0 0 1 3 6 6 6 6 6 8 13 17 16 16 18 20 19 20 21 19 15 12 12 11 7 4 4 2 1 0 0 0 1 1 0 0 0 0 0
0 0 0 0 0 0 0 0 0 0 0 0 2 5 9 10 8 8 10 12 20 26 26 23 24 25 23 22 21 19 14 11 11 8 5 3 2 1 0 0 0 0 0 0 0 0 0 0 0
0 0 0 0 0 0 0 0 0 0 1 2 5 8 11 13 12 12 13 16 24 31 32 30 30 30 27 24 22 19 14 11 9 7 5 3 1 0 0 0 0 0 0 0 0 0 0 0 0
0 0 0 0 0 0 0 1 1 2 3 5 9 12 14 14 16 18 19 21 27 34 37 35 32 31 30 28 24 18 14 10 7 5 3 2 1 0 0 0 0 0 0 0 0 0 0 0 0
0 0 0 0 0 0 1 2 3 5 7 8 12 16 16 17 22 28 31 33 36 40 41 37 33 34 35 32 26 20 15 11 6 3 1 1 0 0 0 0 0 0 0 0 0 0 0 0 0
0 0 0 0 0 0 1 2 3 6 9 11 14 16 18 22 30 38 44 45 47 45 41 37 37 40 40 34 29 23 17 12 7 4 2 1 0 0 0 0 1 1 1 0 0 0 0 1 1
0 0 0 0 0 1 2 3 3 6 11 15 16 18 24 32 38 43 48 50 48 44 37 35 38 42 41 36 31 26 20 15 10 6 4 2 1 0 0 0 1 2 1 1 1 1 1 2 2
0 0 0 0 0 1 3 3 3 8 13 16 19 25 33 40 41 41 43 44 43 39 33 31 36 41 42 39 33 27 23 19 13 8 5 3 2 1 0 0 1 1 1 1 2 3 3 4 4
0 0 0 0 0 1 3 5 7 11 14 15 21 31 38 41 40 36 34 34 35 34 31 29 32 37 40 40 35 27 22 19 14 9 6 5 3 1 1 1 1 0 1 1 2 2 4 4 4
0 0 0 0 1 2 5 9 13 16 15 17 23 30 34 36 35 31 27 27 27 29 30 27 28 32 35 37 32 24 18 15 12 10 8 8 5 2 2 2 1 1 2 2 1 2 4 5 6
0 0 0 1 3 4 7 11 14 15 16 19 22 24 25 27 26 25 25 24 24 25 27 26 26 28 29 28 24 17 13 12 11 10 9 9 6 2 1 2 2 2 2 1 1 2 4 6 7
0 0 0 1 2 4 6 8 7 8 11 13 15 15 17 18 18 20 21 21 20 20 21 22 23 24 23 21 15 10 9 10 11 9 9 8 5 2 2 2 2 1 1 1 1 2 3 3 4
0 0 0 0 1 2 4 4 3 5 8 9 8 10 11 12 13 14 14 14 13 14 15 17 18 18 16 14 10 7 7 7 7 7 6 5 3 2 2 2 1 0 1 1 2 3 3 2 2
0 0 0 0 0 0 1 2 3 5 8 7 6 8 9 9 8 8 7 7 9 10 11 12 13 12 10 7 6 6 5 4 3 3 3 3 2 2 1 1 0 1 2 3 3 4 4 4 3
0 0 0 0 0 0 0 1 3 5 7 7 7 7 6 5 4 3 3 4 5 7 8 8 7 7 6 5 4 4 3 2 1 1 1 1 1 1 1 1 1 1 3 3 3 4 4 4 4
0 0 0 0 0 0 0 2 5 6 6 8 8 7 5 3 2 2 2 3 4 4 4 3 3 3 5 5 5 5 4 3 2 0 0 0 0 0 0 0 1 2 3 3 3 3 2 2 3
0 0 0 0 0 0 1 4 7 8 8 8 8 8 7 4 3 3 3 4 4 2 1 1 1 2 3 5 5 6 6 4 2 0 0 0 0 0 0 0 1 2 3 3 2 2 1 1 1
0 0 0 0 0 1 3 5 8 9 8 7 8 7 6 5 4 4 4 5 3 1 0 0 1 2 3 3 4 4 4 3 1 0 0 0 0 0 1 1 1 2 4 4 3 3 3 1 0
0 0 0 0 0 1 4 6 7 8 7 5 5 4 4 4 4 4 4 3 2 0 0 0 1 2 2 3 3 3 3 2 1 0 0 0 0 0 1 2 2 2 3 4 4 5 5 3 1
0 0 0 0 0 1 2 4 5 6 5 3 2 3 3 4 5 4 3 2 0 0 0 0 1 1 1 1 2 2 2 1 0 0 0 0 0 0 0 1 2 3 3 4 4 5 6 4 3
0 0 0 0 0 0 0 1 2 3 2 1 2 3 3 3 3 3 2 1 0 0 0 0 0 0 0 0 1 1 1 0 0 0 0 0 0 0 0 1 2 3 3 3 3 4 5 5 4
0 0 0 0 0 0 0 0 0 1 1 2 5 6 5 3 2 2 2 1 0 0 0 0 0 0 0 0 0 0 0 0 0 0 0 0 0 0 0 0 1 2 2 3 3 3 3 4 4
0 0 0 0 0 0 0 0 0 0 0 3 7 10 8 5 4 4 2 1 0 0 0 0 0 0 0 0 0 0 0 0 0 0 0 0 0 0 0 0 0 1 1 1 2 2 2 2 3
0 0 0 0 0 0 0 0 0 0 1 4 8 10 9 7 6 5 3 1 0 0 0 0 0 0 0 0 0 0 0 0 0 0 0 0 0 0 0 0 0 0 0 0 1 1 1 2 3
0 0 0 0 0 0 0 0 0 0 3 6 8 9 9 7 5 4 3 2 0 0 0 0 0 0 0 0 0 0 0 0 0 0 0 0 0 0 0 0 0 0 0 0 0 0 1 2 3
0 0 0 0 0 0 0 0 0 0 2 6 9 9 7 5 4 3 2 1 0 0 0 0 0 0 0 0 0 0 0 0 0 0 0 0 0 0 0 0 0 0 0 0 0 0 1 1 1
0 0 0 0 0 0 0 0 0 0 1 3 7 7 5 3 3 2 1 0 0 0 0 0 0 0 0 0 0 0 0 0 0 0 0 0 0 0 0 0 0 0 0 0 0 0 0 0 0
0 0 0 0 0 0 0 0 0 0 0 1 5 6 4 3 3 1 0 0 0 0 0 0 0 0 0 0 0 0 0 0 0 0 0 0 0 0 0 0 0 0 0 0 0 0 0 0 0

GEFSSGP_con_probscp_132.txt.gz
Probability
0 0 0 0 0 0 0 0 0 0 0 0 1 0 0 0 1 0 1 2 3 2 2 3 4 6 7 9 11 16 17 16 13 9 6 3 1 0 0 0 0 0 0 0 0 0 0 0 0
0 0 0 0 0 0 0 0 0 0 0 0 1 0 0 1 1 1 1 3 4 2 1 3 5 8 9 11 17 22 22 19 16 13 8 4 2 1 1 0 0 0 0 0 0 0 0 0 0
0 0 0 0 0 0 0 0 0 0 0 0 0 0 0 1 2 3 4 6 6 3 1 2 6 11 13 17 23 28 27 23 20 16 10 5 3 3 2 1 1 0 0 0 0 0 0 0 0
0 0 0 0 0 0 0 0 0 0 0 0 0 0 1 1 4 7 10 13 10 4 1 3 7 12 16 20 26 29 28 25 22 19 14 9 5 3 3 3 2 1 0 0 0 0 0 0 0
0 0 0 0 0 0 0 0 0 0 0 0 0 1 2 3 6 12 16 17 13 6 4 5 7 11 15 21 26 27 25 23 23 22 18 14 9 5 3 3 3 2 1 0 0 0 0 0 0
0 0 0 0 0 1 1 0 0 0 0 0 0 1 3 5 9 14 16 15 12 8 8 9 7 9 13 19 25 27 25 24 25 24 22 18 13 6 3 3 3 2 1 0 0 0 0 0 0
0 0 0 0 1 2 2 1 0 0 0 0 0 2 5 9 11 12 12 11 11 12 14 12 10 10 13 19 25 29 29 27 27 25 23 20 13 7 3 2 1 1 0 0 0 0 0 0 0
0 0 0 0 1 2 2 1 0 0 1 1 1 4 12 16 15 13 11 11 15 19 18 15 15 15 15 19 24 28 29 27 24 22 20 16 11 6 2 2 2 1 0 0 1 1 0 0 0
0 0 0 0 1 1 1 0 0 0 1 2 5 12 22 27 23 18 14 15 20 23 20 16 16 16 18 22 25 25 25 23 18 15 14 12 9 5 3 4 4 2 0 0 1 1 0 0 0
0 0 0 0 1 1 0 0 0 0 1 5 12 21 29 31 27 22 19 20 22 21 18 14 13 15 21 28 30 30 29 25 19 15 14 12 11 8 6 6 5 1 0 0 1 1 0 0 0
0 0 0 1 1 0 0 1 2 2 3 7 14 23 27 26 23 21 20 20 20 18 16 14 14 17 24 32 36 39 39 33 25 20 19 17 15 12 10 9 6 3 2 2 1 0 0 0 0
0 1 1 2 1 1 1 4 7 10 10 10 16 23 24 21 18 16 16 17 17 18 19 19 19 22 27 32 37 41 42 37 31 26 22 18 16 14 12 12 10 7 7 6 3 2 1 1 1
1 2 3 3 2 1 3 7 13 17 16 16 20 24 24 19 15 13 14 15 19 23 25 25 27 31 34 37 39 40 40 38 35 30 24 20 18 18 17 18 18 14 12 9 6 4 4 4 4
1 2 3 3 2 1 3 7 13 17 18 19 21 23 23 20 17 16 17 18 21 27 30 30 34 39 41 41 41 39 39 39 38 33 28 25 24 25 25 26 24 20 16 13 10 8 8 8 8
1 2 3 3 2 1 2 6 9 12 15 18 20 20 21 19 19 20 21 21 23 28 31 31 34 40 43 42 39 37 37 38 40 38 33 30 30 31 30 29 26 22 18 17 14 12 12 13 12
0 1 3 3 1 0 1 4 6 8 11 15 17 18 17 17 16 16 18 21 23 26 30 30 32 36 40 39 36 34 34 35 38 39 36 33 30 29 27 25 23 21 18 16 15 16 16 15 14
0 1 2 2 1 0 1 4 7 8 10 12 14 14 14 13 11 10 13 17 19 22 25 27 29 29 30 31 31 28 26 27 28 29 30 28 23 20 19 18 18 17 15 14 15 17 18 16 14
0 0 1 1 0 0 1 4 7 8 9 9 11 12 11 10 9 11 14 16 16 17 17 19 21 21 20 21 22 20 17 16 16 17 20 19 14 11 11 11 12 13 14 14 14 15 17 16 14
0 0 0 0 0 0 1 2 4 5 5 7 10 11 10 9 10 14 17 16 14 13 13 12 13 13 13 14 15 14 11 10 10 11 13 13 10 7 6 7 9 11 14 16 14 13 15 17 16
0 0 0 0 0 0 1 2 2 2 2 5 9 11 9 9 12 15 16 15 13 12 12 11 11 9 9 11 12 11 10 9 9 9 10 10 9 6 6 8 9 11 15 17 15 13 15 17 18
0 0 0 0 0 0 2 3 2 1 2 5 9 11 10 10 13 14 14 13 12 10 11 12 11 9 7 7 8 9 9 8 7 6 6 6 6 5 5 7 9 10 12 13 13 12 13 15 17
0 0 0 0 0 0 1 1 1 2 3 6 10 13 14 16 16 15 14 13 9 8 9 11 11 9 6 4 5 7 8 8 6 4 4 4 3 3 3 4 6 7 7 8 8 9 10 11 13
0 0 0 0 0 0 0 0 1 2 3 6 12 17 21 23 20 18 17 13 7 6 7 8 8 7 4 2 3 5 6 6 5 4 4 3 3 2 1 1 2 3 3 4 5 6 7 8 9
0 0 0 0 0 0 0 0 1 2 2 5 13 21 26 27 23 21 19 13 7 5 5 5 5 4 2 1 1 2 3 3 3 3 3 3 2 2 2 1 1 1 1 2 3 4 5 6 7
0 0 0 0 0 0 0 0 2 2 1 6 15 23 27 26 23 21 18 13 7 5 4 3 3 2 2 1 0 0 0 1 2 2 1 1 1 1 1 1 0 0 0 1 2 3 4 4 5
0 0 0 0 0 0 0 1 2 2 3 10 18 22 24 23 20 18 16 10 6 5 4 3 2 2 1 0 0 0 0 0 1 1 0 0 0 0 0 0 0 0 0 1 1 2 3 3 3
1 0 0 0 0 0 0 1 2 2 5 11 16 18 18 17 15 14 11 7 5 4 3 2 1 1 0 0 0 0 0 0 0 0 0 0 0 0 0 0 0 0 0 0 0 1 2 3 2
1 0 0 0 0 0 0 1 1 2 6 11 13 14 13 13 12 10 8 6 4 3 2 1 0 0 0 0 0 0 0 0 0 0 0 0 0 0 0 0 0 0 0 0 0 0 1 2 2
1 0 0 0 0 0 0 0 1 3 7 11 12 12 13 13 10 8 6 6 4 3 1 0 0 0 0 0 0 0 0 0 0 0 0 0 0 0 0 0 0 0 0 0 0 0 0 1 2
0 0 0 0 0 0 0 0 1 4 8 11 10 12 14 13 8 6 6 6 5 3 1 0 0 0 0 0 0 0 0 0 0 0 0 0 0 0 0 0 0 0 0 0 0 0 0 0 1

GEFSSGP_con_probscp_138.txt.gz
Probability
0 0 0 0 0 0 0 0 0 0 0 0 1 2 4 3 1 1 4 14 22 18 10 9 7 4 2 1 0 0 0 0 0 0 0 0 0 0 0 0 0 0 0 0 0 0 0 0 0
0 0 0 0 0 0 0 0 0 0 0 1 2 3 4 3 1 1 6 15 20 16 10 10 10 7 5 3 1 1 0 0 0 0 0 0 0 0 0 0 0 0 0 0 0 0 0 0 0
0 0 0 0 0 0 0 0 0 0 0 1 3 3 5 4 3 3 9 16 19 16 13 13 14 11 7 4 2 2 2 1 1 1 0 0 0 0 0 0 0 0 0 0 0 0 0 0 0
0 0 0 0 0 0 0 1 1 1 0 2 5 8 8 7 6 7 11 14 17 18 17 17 17 16 11 6 4 5 5 3 2 2 2 2 1 0 0 0 0 0 0 0 0 0 0 0 0
0 0 0 0 0 0 0 1 2 2 2 4 11 15 12 8 9 10 10 12 16 19 21 21 22 22 19 12 9 10 11 8 6 5 6 6 3 1 0 0 0 0 0 0 0 0 0 0 0
0 0 0 0 0 0 0 1 3 4 5 9 15 18 13 9 10 10 11 14 19 22 23 24 25 25 24 21 17 17 17 15 12 10 10 9 6 2 0 0 0 0 0 0 0 0 0 0 0
0 0 0 0 0 1 1 1 4 6 8 10 13 15 13 11 10 11 15 20 22 24 23 21 22 22 24 25 25 23 22 21 19 15 13 11 7 2 0 1 0 0 0 0 0 0 0 0 0
0 0 0 0 1 2 2 2 3 7 11 14 16 17 16 13 12 15 21 25 26 25 22 17 16 17 19 23 26 26 25 24 23 19 16 13 9 4 1 2 2 1 1 1 0 0 0 0 0
0 0 0 1 2 3 2 2 4 9 16 24 28 25 19 15 13 17 24 29 30 27 21 17 16 17 16 18 23 26 26 26 24 20 18 16 11 5 3 4 7 6 4 4 2 0 0 0 0
0 0 0 0 1 2 1 3 6 11 18 28 33 28 19 14 15 20 27 34 35 31 25 23 23 21 18 20 24 23 24 25 22 19 19 16 10 7 6 11 14 12 8 6 4 2 0 0 1
0 0 0 0 0 0 1 3 7 13 22 29 31 25 17 14 19 27 34 40 40 36 32 30 27 24 25 28 26 22 23 25 23 22 23 20 16 15 16 19 19 14 9 6 4 3 1 1 1
0 0 0 0 0 1 4 7 11 21 31 33 29 22 17 18 25 34 41 44 42 40 39 36 33 32 35 38 32 24 24 27 28 29 30 30 28 27 26 24 20 14 10 7 6 4 2 2 2
0 0 0 0 0 1 5 10 17 27 33 32 26 21 22 27 33 39 43 45 45 45 44 45 45 46 49 49 42 33 31 33 34 35 36 37 37 34 31 28 22 15 12 12 9 6 5 3 2
0 0 0 1 1 2 4 9 17 26 30 30 26 26 32 38 41 44 46 47 50 52 51 51 53 54 57 57 52 47 44 42 39 38 38 39 38 36 34 32 26 20 17 17 13 10 9 8 5
0 0 0 1 1 1 4 9 16 24 28 30 31 36 43 45 46 49 52 52 54 56 54 51 51 54 58 59 58 56 52 46 42 39 38 37 35 34 33 31 28 25 21 19 17 15 14 12 10
0 0 0 0 0 1 4 12 19 22 24 29 36 42 46 46 45 47 51 52 53 53 53 49 48 52 57 59 57 55 52 46 40 36 34 30 28 28 27 27 27 26 23 20 18 18 18 15 12
0 0 0 0 0 0 4 13 19 18 19 27 35 41 42 40 40 42 45 46 48 48 48 47 47 48 51 52 50 47 45 40 33 29 26 22 21 22 22 24 26 25 22 20 18 19 21 18 16
0 0 0 0 0 0 5 13 16 14 17 23 29 34 35 35 37 40 41 41 43 44 43 43 42 41 41 41 39 36 32 28 24 21 19 17 16 18 20 23 25 23 21 21 19 19 21 22 21
0 0 0 0 0 1 6 11 12 12 15 21 26 30 32 34 36 39 39 36 36 38 38 38 36 34 33 34 33 30 26 21 18 17 15 13 12 13 17 19 20 19 20 21 20 19 20 21 21
0 0 0 0 1 3 6 9 9 10 14 20 28 34 35 36 38 38 35 31 30 30 30 32 32 30 29 30 30 29 26 22 18 16 14 10 8 8 10 14 16 16 17 18 18 18 18 18 17
0 0 0 0 1 3 5 7 6 7 12 20 30 38 40 40 40 37 31 27 25 24 23 25 29 29 27 26 26 27 25 22 17 15 12 9 7 6 7 10 14 15 15 15 15 14 14 14 13
0 0 0 0 1 1 3 4 5 8 13 22 32 38 42 42 39 35 30 24 21 19 19 22 25 27 26 24 23 23 22 18 14 11 9 8 7 6 6 8 11 13 14 12 10 9 10 10 10
0 0 0 0 0 0 1 2 6 12 17 23 31 38 42 44 40 34 28 23 19 16 18 21 22 23 23 21 20 18 16 12 8 7 6 6 6 5 5 7 7 8 8 7 6 6 6 6 6
0 0 0 0 0 0 1 2 8 16 18 21 28 36 43 47 43 34 26 22 18 17 18 19 19 18 18 17 15 13 10 8 6 4 4 4 3 3 3 4 4 3 2 2 3 3 4 4 4
0 0 0 0 0 0 1 3 11 19 19 20 26 35 42 47 43 34 26 21 18 17 16 15 14 14 14 14 12 9 7 6 5 3 2 2 2 1 1 2 2 1 0 0 1 1 2 3 3
0 0 0 0 0 0 1 5 14 20 19 20 26 33 40 44 41 34 26 20 16 15 13 11 11 11 10 10 9 6 4 4 3 2 1 1 1 0 0 0 0 0 0 0 0 0 1 2 2
0 0 0 0 0 0 1 5 12 17 18 20 25 33 39 41 39 33 24 17 13 12 11 10 11 10 7 6 4 3 2 1 1 0 0 0 0 0 0 0 0 0 0 0 0 0 0 1 1
0 0 0 0 0 0 1 3 9 14 17 19 24 32 38 40 37 31 23 16 13 11 9 9 9 9 6 3 2 2 1 1 0 0 0 0 0 0 0 0 0 0 0 0 0 0 0 0 0
0 0 0 0 0 0 1 3 8 13 16 18 23 31 38 39 34 28 22 16 12 10 8 8 7 6 5 3 2 2 2 1 0 0 0 0 0 0 0 0 0 0 0 0 0 0 0 0 0
0 0 0 0 0 0 1 3 9 14 16 19 25 32 38 37 31 26 20 14 10 8 7 7 6 5 4 3 2 1 1 1 0 0 0 0 0 0 0 0 0 0 0 0 0 0 0 0 0

GEFSSGP_con_probscp_144.txt.gz
Probability
0 0 0 0 0 0 0 0 0 0 0 2 7 11 10 6 3 2 1 4 9 10 7 6 6 5 4 3 2 1 0 0 0 1 2 4 5 5 6 6 4 2 1 0 0 0 0 0 0
0 0 0 0 0 0 0 0 0 0 2 6 12 15 14 9 3 1 2 5 10 10 7 6 6 6 4 3 1 0 1 1 0 0 2 4 4 4 6 6 4 2 1 0 0 0 0 0 0
0 0 0 0 0 0 0 0 1 2 8 15 20 20 16 10 4 2 4 9 13 13 11 9 8 8 6 3 1 1 3 2 1 1 2 4 4 3 4 4 3 2 1 0 0 0 0 0 0
0 0 0 0 0 0 0 1 3 9 17 25 28 24 18 11 6 5 9 14 18 18 16 14 14 12 9 7 4 4 6 6 5 4 5 5 5 4 4 3 3 1 0 0 0 0 0 0 0
0 0 0 0 0 0 1 3 9 19 28 34 36 29 20 14 10 10 12 17 20 21 18 19 20 17 14 13 11 9 9 9 9 8 7 6 7 7 7 6 4 1 0 0 0 0 0 0 0
0 0 0 0 0 0 2 5 12 23 33 39 39 31 20 16 14 12 13 16 19 20 19 19 21 21 18 18 18 16 13 11 11 9 8 8 8 9 9 9 6 2 1 1 0 0 0 0 0
0 0 0 0 0 0 2 5 11 21 28 32 36 32 23 18 18 16 16 16 16 18 18 16 16 17 18 19 21 21 19 17 15 14 11 9 8 8 9 9 7 4 3 2 1 1 1 1 1
0 0 0 0 0 1 2 6 11 18 21 23 29 31 27 25 24 24 21 17 15 15 15 14 13 13 15 18 20 20 20 19 19 18 15 12 8 7 8 8 7 5 4 3 3 3 3 3 2
0 0 0 0 1 2 4 8 13 16 18 21 25 28 29 31 31 30 26 18 13 12 12 12 11 12 14 15 16 15 15 15 17 17 16 13 9 7 7 7 7 7 6 5 5 4 4 3 2
0 0 0 0 1 4 7 9 11 12 16 19 21 25 28 30 31 30 25 17 11 9 8 8 8 10 13 14 14 12 11 11 12 13 13 11 8 6 5 5 6 8 8 7 7 6 4 2 1
0 0 0 0 1 5 9 11 11 12 14 14 16 19 23 27 29 27 22 15 11 9 7 5 4 7 11 14 14 11 10 10 10 9 8 7 6 5 3 2 4 7 8 8 8 8 7 4 2
0 0 1 2 4 6 10 15 17 16 13 12 12 15 20 26 29 28 23 17 15 14 11 7 5 5 8 12 12 9 8 9 8 6 4 4 4 3 2 2 2 4 7 8 8 8 7 4 2
0 1 2 5 8 9 13 19 22 20 15 14 15 17 22 28 31 33 30 25 24 24 20 14 11 10 11 12 11 7 6 7 6 4 2 1 1 1 1 2 2 3 5 6 6 5 4 2 2
1 1 3 6 9 11 17 22 22 20 18 18 19 21 25 30 34 36 35 32 31 31 27 21 17 16 17 16 13 8 6 6 4 3 2 1 0 0 1 2 2 3 3 4 4 3 2 1 1
3 3 2 4 6 9 14 18 18 17 19 22 23 25 28 32 35 36 36 33 32 31 28 24 19 16 15 16 13 9 6 4 2 2 2 1 0 0 1 1 1 1 3 3 3 3 2 0 0
4 4 3 2 2 4 8 11 12 15 22 27 28 29 31 32 32 33 32 31 29 27 25 21 18 14 12 12 12 9 5 2 1 1 1 0 0 0 0 0 0 1 2 3 3 3 2 1 0
4 4 3 1 0 2 5 7 9 13 21 28 31 32 31 30 29 30 31 30 27 24 22 18 15 14 12 11 10 7 4 1 0 0 0 1 1 1 0 0 0 1 1 1 2 3 1 1 1
3 4 3 1 1 1 4 8 11 12 18 25 31 32 29 26 27 30 33 32 27 21 17 14 13 12 10 8 6 5 3 1 1 1 1 1 2 1 0 0 1 2 2 1 1 1 1 0 0
2 2 2 1 1 1 5 11 14 15 17 23 30 32 27 24 27 31 31 30 25 18 13 12 10 8 4 2 2 3 3 3 2 2 2 2 2 1 0 1 2 3 2 1 0 0 0 0 0
0 1 1 1 0 2 7 12 14 14 16 22 28 29 24 22 25 27 27 25 22 16 12 9 7 4 1 0 1 1 2 2 2 1 1 1 1 1 1 1 2 3 2 1 0 0 0 0 0
0 0 0 0 1 3 7 9 10 12 17 23 26 24 22 21 22 22 22 21 18 15 11 7 4 1 0 0 0 0 1 1 1 0 0 0 0 0 0 0 1 1 2 1 0 0 0 0 0
0 0 0 0 2 4 5 5 7 13 22 26 25 23 22 21 21 19 18 16 14 12 9 5 2 0 0 0 0 0 0 0 0 0 0 0 0 0 0 0 0 1 2 1 0 0 0 0 0
0 0 0 0 1 2 2 2 5 12 21 27 27 24 22 22 21 18 15 12 10 9 8 5 2 1 1 1 1 0 0 0 0 0 0 0 0 0 0 0 0 0 1 1 0 0 0 0 0
0 0 0 0 0 1 1 1 3 7 13 21 26 24 20 21 21 18 14 11 10 8 7 6 3 2 2 1 1 0 0 0 0 1 0 0 0 0 0 0 0 0 0 0 0 0 0 0 0
0 0 0 0 0 0 0 1 3 6 9 14 19 21 19 19 19 18 15 12 10 8 6 4 3 2 1 1 0 0 0 0 0 0 0 0 0 0 0 0 0 0 0 0 0 0 0 0 0
0 0 0 0 0 0 0 1 4 7 9 11 13 17 18 18 19 18 15 11 9 7 4 2 1 1 0 0 0 0 0 0 0 0 0 0 0 0 0 0 0 0 0 0 0 0 0 0 0
0 0 0 0 0 0 0 2 4 6 8 10 12 15 18 19 18 16 12 8 6 5 3 1 0 0 0 0 0 0 0 0 0 0 0 0 0 0 0 0 0 0 0 0 0 0 0 0 0
0 0 0 0 0 0 0 1 2 3 6 10 13 16 19 17 14 10 6 3 2 2 2 2 0 0 0 0 0 0 0 0 0 0 0 0 0 0 0 0 0 0 0 0 0 0 0 0 0
0 0 0 0 0 0 0 0 0 1 5 9 13 16 17 14 9 5 2 1 0 1 2 1 0 0 0 0 0 0 0 0 0 0 0 0 0 0 0 0 0 0 0 0 0 0 0 0 0
0 0 0 0 0 0 0 0 0 1 4 9 13 14 14 11 8 4 2 1 0 1 2 1 0 0 0 0 0 0 0 0 0 0 0 0 0 0 0 0 0 0 0 0 0 0 0 0 0

GEFSSGP_con_probscp_150.txt.gz
Probability
0 0 0 0 0 0 0 0 0 0 0 0 1 2 3 2 1 0 0 1 3 3 1 1 3 5 4 2 2 3 2 1 3 6 8 9 10 11 9 6 2 1 0 0 0 0 0 0 0
0 0 0 0 0 0 0 0 0 0 0 1 2 4 6 4 2 0 0 1 3 3 2 2 4 6 5 2 2 3 2 1 3 6 8 8 9 10 9 6 4 3 2 1 0 0 0 0 0
0 0 0 0 0 0 0 0 1 2 2 1 3 6 7 5 2 1 1 2 3 3 3 4 6 7 6 4 3 2 1 1 3 5 7 7 8 9 9 7 6 5 4 2 0 0 0 0 0
0 0 0 0 0 0 0 1 2 3 3 2 4 7 6 4 1 1 3 4 4 4 5 7 8 7 7 6 5 3 2 3 5 7 8 8 9 10 10 10 8 7 5 2 0 0 0 0 1
0 0 0 0 0 0 0 1 3 3 2 2 5 8 7 4 2 2 3 4 6 8 8 9 10 10 10 10 8 5 3 4 8 10 11 10 10 10 10 11 10 7 4 2 1 0 0 0 1
0 0 0 0 0 0 0 1 2 3 2 2 6 10 9 6 6 5 3 3 7 12 13 12 11 12 12 12 10 7 5 5 8 12 14 13 12 11 10 10 9 7 5 3 3 3 2 2 2
0 0 0 0 0 0 0 0 1 3 3 2 6 11 11 10 10 8 5 4 8 14 15 13 11 12 13 13 12 9 6 6 8 12 14 14 13 12 11 10 9 7 6 5 5 6 6 5 5
0 0 0 0 0 0 0 0 2 3 3 4 6 9 12 16 18 14 10 8 9 12 13 13 12 13 14 14 13 10 8 8 9 11 13 13 13 11 11 12 11 8 7 6 6 8 8 8 8
0 0 0 0 0 0 0 1 3 4 5 7 6 8 17 27 29 24 19 15 11 9 9 10 12 14 15 15 13 11 10 11 10 10 11 11 11 10 11 12 11 11 10 8 7 8 9 8 7
0 0 0 0 0 0 0 1 3 4 5 6 8 16 29 34 31 24 20 17 12 8 6 5 7 9 11 12 12 10 9 10 10 10 11 10 9 8 9 10 11 12 12 10 9 10 10 9 7
0 1 1 1 1 2 3 4 5 4 3 2 10 28 37 33 24 16 13 12 10 7 5 3 2 3 5 8 10 8 6 5 7 9 10 8 6 5 5 7 9 10 11 9 8 10 11 9 8
1 2 3 3 4 6 9 11 13 9 5 5 17 33 36 29 21 12 8 7 7 7 5 3 1 1 3 5 6 4 3 3 4 6 6 5 4 3 2 3 4 6 7 5 4 6 9 9 8
2 3 4 6 7 9 13 18 19 16 13 16 26 33 33 28 23 16 11 9 9 8 6 4 1 1 2 3 4 3 2 2 3 3 3 3 3 2 1 1 2 4 5 4 2 2 4 6 7
3 4 6 8 8 9 14 19 19 17 19 27 33 35 31 26 24 20 15 13 12 10 8 5 3 1 1 2 3 2 2 2 3 2 2 2 2 1 2 2 3 4 5 4 2 1 1 3 4
3 5 7 8 6 6 10 15 15 14 21 29 33 32 28 23 20 19 17 16 15 12 9 7 5 2 1 1 2 1 1 1 1 1 1 1 1 1 2 3 3 3 4 4 2 1 0 2 3
1 3 5 5 4 3 5 9 10 11 18 24 26 26 24 20 17 18 18 17 15 10 7 6 5 2 1 0 0 0 0 0 0 0 0 0 0 1 2 2 2 3 3 3 2 1 1 2 2
0 1 3 3 3 2 3 5 8 11 14 18 20 21 22 20 19 18 18 17 13 9 6 6 6 4 2 0 0 1 1 1 1 0 0 0 0 1 1 1 1 2 2 2 1 0 1 1 1
0 1 2 3 3 2 2 4 9 12 14 15 16 17 20 21 19 18 17 14 11 8 7 8 7 5 2 1 1 2 2 2 1 0 0 0 0 0 0 0 0 1 1 1 0 0 0 0 0
0 1 3 3 2 1 2 5 9 13 16 15 13 13 17 19 17 15 13 11 10 8 7 6 5 3 2 2 2 2 2 2 1 0 0 0 0 0 0 0 0 0 0 0 0 0 0 0 0
1 1 2 2 1 1 2 5 9 13 16 16 13 13 16 16 14 12 10 9 8 7 5 3 2 1 1 1 1 1 1 1 0 0 0 0 0 0 0 0 0 0 0 0 0 0 0 0 0
0 1 1 1 1 1 2 5 7 10 12 12 12 14 15 14 12 10 8 7 7 6 4 2 0 0 0 0 0 0 0 0 0 0 0 0 0 0 0 0 0 0 0 0 0 0 0 0 0
0 0 0 0 0 0 1 2 4 6 6 5 7 11 14 13 12 10 8 6 6 6 3 1 0 0 0 0 0 0 0 0 0 0 0 0 0 0 0 0 0 0 0 0 0 0 0 0 0
0 0 0 0 0 0 0 0 1 2 2 2 6 10 13 13 10 9 8 7 7 5 2 0 0 0 0 0 0 0 0 0 0 0 0 0 0 0 0 0 0 0 0 0 0 0 0 0 0
0 0 0 0 0 0 0 0 0 1 1 4 8 12 13 11 8 8 10 10 8 5 2 0 0 0 0 0 0 0 0 0 0 0 0 0 0 0 0 0 0 0 0 0 0 0 0 0 0
0 0 0 0 0 0 0 0 0 1 3 5 8 11 11 8 6 8 10 11 9 5 2 0 0 0 0 0 0 0 0 0 0 0 0 0 0 0 0 0 0 0 0 0 0 0 0 0 0
0 0 0 0 0 0 0 0 0 1 2 3 5 7 6 5 6 9 10 10 8 4 1 0 0 0 0 0 0 0 0 0 0 0 0 0 0 0 0 0 0 0 0 0 0 0 0 0 0
0 0 0 0 0 0 0 0 0 1 1 1 1 2 4 5 7 9 10 8 5 2 1 0 0 0 0 0 0 0 0 0 0 0 0 0 0 0 0 0 0 0 0 0 0 0 0 0 0
0 0 0 0 0 0 0 0 0 0 0 0 0 2 4 6 7 7 8 5 2 1 0 0 0 0 0 0 0 0 0 0 0 0 0 0 0 0 0 0 0 0 0 0 0 0 0 0 0
0 0 0 0 0 0 0 0 0 0 0 0 1 3 5 5 5 5 4 2 0 0 0 0 0 0 0 0 0 0 0 0 0 0 0 0 0 0 0 0 0 0 0 0 0 0 0 0 0
0 0 0 0 0 0 0 0 0 0 0 0 1 4 5 4 4 4 2 1 0 0 0 0 0 0 0 0 0 0 0 0 0 0 0 0 0 0 0 0 0 0 0 0 0 0 0 0 0

GEFSSGP_con_probscp_156.txt.gz
Probability
0 0 0 0 0 0 0 0 0 0 0 0 0 0 0 0 0 0 0 0 1 1 1 1 0 1 3 5 5 5 5 5 5 5 5 3 1 0 0 0 0 0 0 0 0 0 0 0 0
0 0 0 0 0 0 0 0 0 0 0 0 0 0 0 0 0 0 0 1 2 2 1 0 0 0 2 5 7 7 6 6 6 7 7 4 1 0 0 0 0 0 0 0 0 0 0 0 0
0 0 0 0 0 0 0 0 0 0 1 1 1 1 0 0 0 0 0 1 2 2 1 0 0 1 3 6 8 9 8 7 8 10 8 5 1 0 0 0 0 0 0 0 0 0 0 0 0
0 0 0 0 0 0 0 0 0 1 2 3 3 2 3 3 3 2 1 2 3 3 2 2 3 3 5 7 8 10 10 9 10 11 10 7 3 2 1 1 1 0 0 1 1 0 0 0 0
0 0 0 0 0 1 1 1 1 1 3 4 4 5 7 8 7 6 4 4 4 4 4 6 7 6 7 7 7 8 9 9 11 13 12 9 6 4 4 4 2 1 0 1 2 1 0 0 0
0 0 0 0 1 3 3 2 2 2 3 3 4 6 10 13 13 10 7 5 5 5 6 8 8 7 7 8 7 7 7 8 11 13 13 10 7 6 5 4 3 2 2 3 3 3 2 1 1
0 0 0 0 2 3 3 2 2 2 2 2 4 6 11 17 17 13 9 6 6 6 6 6 6 6 7 7 7 7 8 9 11 13 12 10 9 7 5 4 4 5 5 5 5 5 4 3 2
0 0 0 0 1 2 2 2 2 2 4 4 5 7 15 21 21 17 12 9 8 7 6 5 4 5 6 6 6 7 9 9 10 11 11 9 7 6 6 7 8 8 8 7 7 7 5 3 2
0 0 0 0 1 2 2 2 2 4 7 7 7 11 21 28 27 22 17 14 12 9 6 4 3 4 5 6 6 7 7 7 9 10 10 7 4 3 4 10 14 12 9 7 8 8 5 2 1
0 0 1 1 2 4 4 3 3 4 6 7 11 19 29 34 30 23 20 17 15 11 7 4 4 4 5 6 7 6 4 5 7 8 7 6 5 4 6 13 16 12 8 7 8 9 6 2 1
0 1 2 2 3 5 5 4 4 4 5 5 12 25 35 35 28 22 19 17 15 12 9 6 6 6 6 7 7 5 4 6 7 7 6 8 11 12 13 17 17 12 9 10 10 9 7 4 3
2 3 3 3 4 4 5 6 7 8 8 8 15 26 33 31 26 21 19 16 15 15 13 10 10 10 9 10 9 6 4 7 9 9 8 10 16 18 19 20 19 16 15 16 15 12 9 8 6
4 4 4 4 4 5 7 9 12 13 13 14 21 27 28 28 26 23 21 19 18 18 17 15 16 16 16 15 12 8 7 9 12 12 12 13 17 19 19 19 19 18 19 20 18 14 13 13 11
4 5 5 5 5 6 8 11 15 17 17 18 23 27 27 28 27 24 21 21 21 19 17 18 19 19 18 17 15 13 13 14 14 15 15 13 15 16 16 16 17 18 20 20 18 15 15 16 16
2 4 6 7 7 6 6 10 16 19 19 19 22 27 30 30 27 23 22 22 22 20 18 17 18 18 17 17 19 19 19 18 17 15 13 10 10 12 13 15 16 17 17 18 18 17 16 17 16
1 2 4 6 6 5 4 9 15 20 21 21 22 26 30 28 24 22 22 22 22 21 19 18 18 18 18 19 21 22 21 19 16 12 9 7 8 10 12 14 16 15 14 15 17 17 18 18 16
0 0 2 3 4 4 4 8 15 19 20 20 22 25 27 24 22 21 21 21 21 21 21 21 21 21 22 22 20 18 18 15 11 8 6 5 6 8 10 13 14 14 13 14 17 20 21 21 19
0 0 1 3 3 3 4 7 12 15 16 18 21 23 23 21 20 20 20 20 21 22 22 23 23 23 24 22 18 14 12 10 6 3 3 3 4 6 8 11 13 13 13 14 18 21 22 21 20
0 1 2 2 3 3 3 4 9 12 13 15 19 20 20 19 19 21 21 21 21 22 23 24 24 24 23 21 17 13 10 8 5 3 2 2 2 3 6 8 11 11 10 11 14 18 18 17 16
0 1 2 1 1 2 1 2 6 10 12 13 16 18 19 19 20 22 22 21 21 21 21 22 23 23 21 18 15 13 11 9 7 5 4 3 2 3 4 6 8 7 6 7 10 13 13 11 10
1 1 1 0 1 2 1 2 4 8 10 11 14 19 21 20 21 22 23 23 23 22 20 21 22 20 17 15 14 13 12 10 8 8 7 6 4 4 4 4 5 5 5 7 9 11 10 8 7
1 1 0 0 1 2 2 2 4 5 7 9 12 17 22 22 20 20 21 23 23 21 20 21 20 19 17 17 16 15 13 10 10 12 12 10 7 5 3 3 4 5 6 6 7 8 7 7 7
1 0 0 0 0 1 1 1 2 3 4 7 11 16 22 24 20 16 16 18 20 20 22 23 22 20 20 20 19 16 13 12 13 15 16 14 11 7 4 3 3 4 4 5 5 5 6 7 7
0 0 0 0 0 0 0 0 1 2 3 6 11 18 23 24 19 15 13 15 18 21 24 25 24 21 20 20 18 16 14 15 16 18 17 16 14 10 6 4 5 4 4 3 3 4 5 6 7
0 0 0 0 0 0 0 1 3 6 6 9 14 20 22 21 17 16 14 15 19 23 25 25 22 20 19 18 15 14 14 17 18 18 16 15 15 13 9 6 6 6 5 3 3 5 6 6 6
0 0 0 0 0 0 0 2 5 8 9 11 16 19 19 18 17 17 17 19 22 24 23 22 21 18 15 13 12 11 12 15 16 14 12 12 13 12 8 6 6 6 5 2 2 4 6 6 6
0 0 0 0 0 0 1 3 5 7 8 11 13 14 14 16 18 18 19 21 22 21 19 18 17 14 10 9 8 8 8 11 11 9 7 8 9 7 4 3 4 4 3 2 1 2 4 5 5
0 0 0 0 0 0 1 3 4 5 7 7 9 10 12 15 18 18 18 19 19 17 14 13 12 9 7 6 6 5 5 7 6 5 4 5 5 2 1 1 2 2 2 1 1 1 2 3 3
0 0 0 0 0 0 0 1 4 8 8 8 8 10 13 15 17 15 14 14 15 13 12 10 9 7 5 5 4 3 3 4 3 3 3 3 2 0 0 0 1 1 1 1 0 0 0 1 2
0 0 0 0 0 0 0 1 5 10 11 10 10 12 14 15 14 12 11 11 12 12 10 9 9 7 5 4 4 3 3 2 2 3 3 1 0 0 0 0 0 0 0 0 0 0 0 0 1

GEFSSGP_con_probscp_162.txt.gz
Probability
0 0 0 0 0 0 0 1 1 1 0 0 1 4 6 5 3 2 4 12 20 17 8 5 6 4 1 0 0 0 0 0 0 0 0 0 0 0 0 0 0 0 0 0 0 0 0 0 0
0 0 0 0 0 0 0 1 2 1 0 0 2 5 7 5 3 4 8 16 19 14 7 7 9 7 4 1 0 0 0 0 0 0 0 0 0 0 0 0 0 0 0 0 0 0 0 0 0
0 0 0 0 0 0 1 1 2 1 1 1 3 6 7 5 4 7 12 16 17 11 9 12 13 11 7 4 2 1 0 0 0 0 0 0 0 0 0 0 0 0 0 0 0 0 1 1 0
0 0 0 0 0 0 1 2 2 1 2 3 6 10 10 6 6 8 11 13 13 12 12 15 17 15 11 7 4 3 2 1 1 1 1 0 0 0 0 0 0 1 2 1 1 1 2 2 1
0 0 0 0 0 0 1 3 3 3 4 5 10 18 17 10 7 8 9 11 15 17 17 17 19 17 12 9 7 6 5 3 3 3 3 1 1 2 1 0 0 1 2 2 2 3 3 3 2
0 0 0 0 1 1 2 3 4 5 5 8 16 24 22 14 11 10 11 15 21 24 21 17 16 15 11 9 8 7 6 4 4 5 4 3 3 3 2 0 0 1 1 2 3 3 4 3 3
0 0 0 0 2 5 4 3 4 5 6 10 19 25 22 18 16 15 17 22 27 28 22 14 12 12 10 9 8 8 6 5 4 5 5 4 4 4 2 1 0 0 0 1 1 3 4 5 4
0 0 0 1 3 7 6 3 4 8 10 14 22 25 23 22 21 22 24 26 28 26 20 13 10 10 9 9 10 11 9 7 4 4 5 6 5 4 4 2 1 1 1 1 0 1 3 5 4
0 0 0 1 4 7 7 4 6 11 16 22 29 30 27 25 25 27 28 27 26 24 20 14 11 9 9 11 13 13 12 8 6 6 7 7 5 4 4 5 7 7 5 3 1 2 3 3 3
0 0 0 1 4 8 7 6 8 13 19 27 33 33 27 24 26 29 30 29 27 25 21 16 13 11 12 16 16 14 13 11 9 9 10 8 5 4 5 12 19 15 8 5 4 5 5 4 3
0 0 1 2 5 8 8 6 9 15 22 28 30 27 23 22 24 28 32 33 32 28 22 19 18 18 21 25 23 18 19 19 15 14 16 13 9 8 12 22 26 19 10 7 8 10 10 9 9
0 1 2 3 6 8 7 8 11 16 24 28 25 21 20 23 25 29 34 37 37 32 26 25 29 34 38 40 35 30 31 30 25 23 22 20 17 16 19 26 26 19 13 10 11 14 14 14 15
0 1 2 4 6 7 6 9 13 18 25 28 24 21 23 29 33 35 39 43 42 38 33 34 42 49 54 54 48 42 41 39 36 33 30 27 25 24 23 26 27 22 17 15 17 19 20 21 22
1 1 2 3 5 6 6 9 15 21 26 28 27 26 29 35 40 44 48 49 49 45 43 45 49 54 56 54 49 45 43 43 42 39 35 31 29 26 24 26 29 27 21 21 23 23 24 25 25
2 2 3 3 3 4 5 9 15 21 26 29 31 33 36 39 44 50 54 55 54 53 52 50 49 49 48 45 44 44 44 42 40 39 35 30 28 26 23 24 28 29 25 24 24 24 24 24 23
1 2 2 1 1 2 5 9 14 19 24 28 34 38 42 43 45 50 54 55 55 56 55 51 46 45 45 44 45 47 47 43 39 36 33 27 25 23 20 21 26 29 28 24 22 22 23 22 21
0 1 1 1 0 0 3 9 15 18 22 27 35 41 43 44 45 47 49 51 52 53 53 51 47 46 46 47 49 50 49 45 40 37 33 28 24 21 18 18 22 26 27 24 21 23 25 24 22
0 0 1 1 0 0 4 10 16 18 20 25 33 39 42 44 45 45 46 46 46 47 47 48 48 47 47 48 50 50 48 44 39 36 34 30 26 22 19 18 20 24 25 22 20 23 26 26 25
0 0 1 1 0 1 5 11 16 17 19 24 30 35 41 45 46 45 45 44 42 42 42 42 43 45 48 51 51 49 45 41 36 34 34 32 29 26 22 21 22 24 24 21 19 20 23 25 25
0 0 1 2 1 2 5 11 15 18 20 25 29 35 42 47 48 47 44 40 39 40 40 40 41 44 49 52 49 45 41 37 34 33 34 33 30 28 24 24 25 24 25 24 19 18 20 21 19
0 0 1 2 1 2 4 7 13 18 21 26 31 37 42 45 48 48 43 39 39 40 40 40 41 42 46 48 44 39 36 33 31 31 32 31 29 26 25 25 24 23 26 25 20 16 16 16 15
0 0 1 1 1 1 2 4 11 19 22 25 30 34 36 39 43 45 41 39 40 40 40 42 42 42 42 42 39 35 32 30 29 28 28 29 27 25 23 23 23 22 23 21 17 13 12 12 12
0 0 0 0 0 0 1 4 10 18 24 26 27 28 30 34 38 38 37 38 40 40 40 42 42 41 39 38 36 34 32 29 27 25 26 27 26 24 22 21 21 21 19 16 15 13 11 10 9
0 0 0 0 0 0 1 4 10 16 22 26 26 25 27 32 35 35 34 36 37 38 39 39 40 38 36 35 35 34 32 28 25 24 24 24 23 21 18 17 18 18 17 15 15 13 10 8 7
0 0 0 0 0 0 0 3 9 12 17 23 25 26 28 32 34 34 33 35 36 36 36 37 36 34 32 32 33 33 29 24 21 20 20 19 19 16 14 13 14 14 13 13 13 11 7 5 5
0 0 0 0 0 0 0 3 8 11 15 21 25 26 27 30 32 32 33 35 35 34 33 33 32 29 26 26 28 28 25 19 16 14 14 14 14 12 10 10 11 11 9 9 10 9 6 4 4
0 0 0 0 0 0 1 4 7 11 16 22 26 26 26 27 29 31 32 34 33 31 30 29 28 24 21 20 21 22 20 17 14 12 10 9 9 9 7 7 7 7 6 6 8 8 7 6 6
0 0 0 0 0 0 0 3 6 9 14 20 25 27 26 27 28 28 29 30 29 28 26 26 24 20 17 16 17 16 15 15 14 11 9 8 7 6 5 4 4 4 4 5 6 7 6 5 5
0 0 0 0 0 0 0 3 8 12 13 18 25 27 26 25 25 26 27 28 27 25 24 22 20 17 16 16 16 14 12 12 11 10 10 9 7 5 4 3 3 3 3 3 4 5 4 3 2
0 0 0 0 0 0 0 4 11 16 17 18 24 27 24 22 24 27 28 27 25 24 23 20 17 15 15 16 16 13 11 11 10 9 9 9 7 5 4 3 3 3 2 1 2 2 2 1 0

GEFSSGP_con_probscp_168.txt.gz
Probability
0 0 0 0 0 0 0 0 1 2 3 4 9 13 11 7 3 1 0 2 6 8 7 9 12 12 9 7 6 5 4 3 2 1 0 0 0 0 1 3 2 1 0 0 0 0 0 0 0
0 0 0 0 0 0 0 0 1 2 4 9 15 17 13 8 4 2 0 3 7 9 9 10 14 14 11 9 7 6 5 3 3 3 2 1 1 1 2 3 3 1 0 0 0 0 0 0 0
0 0 0 0 0 0 0 0 3 5 9 14 20 20 14 8 6 4 3 6 11 12 11 14 16 17 15 12 9 8 7 5 4 5 5 3 3 3 3 3 2 1 0 0 0 0 1 1 1
0 0 0 0 0 0 0 1 6 12 15 18 22 21 15 10 9 10 10 13 16 16 15 18 20 19 18 15 11 10 9 7 6 6 6 5 4 3 3 2 1 1 0 0 0 0 1 2 2
0 0 0 0 0 0 0 3 10 17 20 21 24 21 16 13 16 20 20 18 19 20 20 21 22 21 19 17 12 10 9 8 7 7 6 6 5 3 2 2 1 0 0 0 0 0 0 1 1
0 0 0 0 0 0 1 4 12 18 20 21 22 19 15 15 19 22 23 20 22 24 24 22 21 20 19 18 14 11 10 9 8 7 6 6 5 3 2 2 2 1 0 0 0 0 0 0 0
0 0 0 0 0 1 4 6 11 17 19 18 19 18 15 15 17 19 21 22 24 28 27 23 20 17 17 18 16 13 11 10 9 7 6 5 5 4 3 3 3 1 0 0 0 0 0 0 0
0 0 0 0 0 2 5 8 12 18 19 16 16 17 17 18 21 25 26 24 24 27 26 23 20 17 16 17 16 14 12 10 9 7 5 4 4 4 4 5 4 3 1 0 0 1 1 0 0
0 0 0 0 1 3 6 9 13 21 25 21 19 20 23 26 32 37 35 27 23 22 21 20 19 19 17 15 13 11 10 10 8 5 4 3 2 3 4 5 6 5 3 2 2 3 2 1 1
0 0 0 1 3 5 6 7 13 24 30 26 23 26 29 32 37 43 40 31 23 19 16 15 16 17 15 12 9 7 6 6 5 3 2 2 2 2 4 6 7 6 4 3 3 4 3 2 2
1 0 1 2 4 6 6 6 12 23 28 24 24 29 33 34 36 40 40 33 24 18 14 12 12 11 10 8 8 6 5 3 2 2 2 2 2 1 3 5 6 6 4 3 3 3 3 2 2
2 1 1 3 5 6 6 6 10 18 23 23 26 32 34 33 31 33 35 31 26 21 17 13 11 9 8 9 9 8 5 3 1 1 2 3 2 1 1 2 3 4 5 3 2 3 3 3 2
2 2 2 3 4 6 6 6 10 16 23 28 32 35 34 30 27 28 30 30 28 26 23 18 14 12 12 13 12 9 6 3 1 1 3 5 3 2 1 1 2 4 3 2 2 3 3 3 3
2 3 4 3 3 5 6 8 12 17 25 31 34 33 31 28 27 29 31 32 30 29 28 25 21 19 19 18 15 11 8 6 5 5 6 6 5 4 3 2 3 3 1 0 1 2 2 3 3
1 3 3 2 3 4 5 9 13 19 25 30 32 31 29 29 31 33 35 34 33 32 32 30 26 24 24 22 19 15 13 13 12 10 9 9 8 8 7 5 4 3 1 0 0 1 1 1 2
0 1 1 1 2 3 4 8 13 20 25 27 28 30 31 32 35 37 38 36 35 35 34 31 29 28 27 24 22 19 18 18 18 16 14 14 14 13 11 9 6 4 2 1 1 1 0 0 1
0 0 0 0 1 2 4 8 13 20 25 25 24 27 30 33 36 38 38 37 36 35 34 32 30 30 28 25 22 20 18 18 18 18 17 17 17 15 13 10 7 5 4 3 2 2 1 0 0
0 0 0 0 0 1 5 9 14 20 25 25 25 26 29 31 32 33 34 34 35 36 35 33 31 29 26 23 20 18 16 15 16 15 14 15 15 15 13 11 8 7 6 4 3 3 2 0 0
1 1 0 0 0 2 6 10 14 18 23 26 28 29 29 28 28 28 28 30 33 35 35 34 31 28 24 20 19 16 14 14 14 13 12 12 13 14 14 12 9 8 7 4 3 3 1 0 0
2 1 0 0 1 2 5 8 10 14 18 23 26 28 26 25 26 27 26 25 30 34 34 32 30 27 22 20 19 17 15 15 15 13 11 11 13 14 13 12 10 8 6 4 3 2 1 0 0
1 1 0 0 1 2 3 4 6 9 14 17 20 21 22 24 26 26 22 20 23 29 30 29 27 24 21 20 20 18 16 15 14 11 10 11 13 13 12 11 9 7 6 4 2 1 1 1 1
0 0 0 0 0 1 1 2 3 6 9 13 14 16 19 23 25 22 17 16 18 23 26 26 24 21 19 20 20 18 15 13 10 8 8 10 12 12 11 10 9 7 5 3 2 2 2 2 2
0 0 0 0 0 0 0 1 1 2 5 8 11 15 18 21 23 20 16 16 17 21 24 25 22 19 18 19 19 16 13 10 8 6 6 8 10 11 11 10 8 6 5 4 3 3 3 3 2
0 0 0 0 0 0 0 0 0 0 2 5 10 14 16 18 19 18 17 18 19 21 24 24 21 18 16 16 16 14 11 10 8 7 6 7 8 8 8 7 5 4 5 4 3 2 2 1 1
0 0 0 1 0 0 0 0 0 0 3 6 9 11 12 13 15 16 17 17 18 21 22 21 18 15 13 12 12 11 10 9 9 8 6 6 6 5 4 3 2 1 2 2 1 1 1 0 0
0 0 0 0 0 0 0 0 0 1 5 9 10 11 10 10 11 14 15 16 16 18 19 17 15 14 12 10 10 9 9 8 8 7 6 5 4 2 1 1 0 0 0 0 0 0 0 0 0
0 0 0 0 0 0 0 0 0 2 5 9 11 12 10 9 9 12 14 15 14 13 14 14 13 12 10 9 8 7 7 6 6 6 5 5 3 1 0 0 0 0 0 0 0 0 0 0 0
0 0 0 0 0 0 0 0 0 1 3 5 8 10 9 8 9 11 14 13 12 10 9 10 10 10 8 7 6 5 4 3 3 4 4 4 3 2 1 0 0 0 0 0 0 0 0 0 0
0 0 0 0 0 0 0 0 0 0 1 1 3 5 6 6 8 11 12 11 10 8 6 6 6 7 6 5 4 4 3 1 1 1 1 2 3 2 1 0 0 0 0 0 0 0 0 0 0
0 0 0 0 0 0 0 0 0 0 0 0 0 2 4 5 7 9 10 10 9 7 5 4 4 5 5 4 3 3 3 2 1 0 0 1 2 2 1 0 0 0 0 0 0 0 0 0 0